<?xml version="1.0" encoding="UTF-8" standalone="no" ?>
<gpx xmlns="http://www.topografix.com/GPX/1/1" xmlns:xsi="http://www.w3.org/2001/XMLSchema-instance" xsi:schemaLocation="http://www.topografix.com/GPX/1/1 http://www.topografix.com/GPX/1/1/gpx.xsd" version="1.1" creator="VisuGPX - https://www.visugpx.com">
  <metadata>
    <name>Balade</name>
    <desc><![CDATA[essai de transfer de tracé en itinéraire]]></desc>
  </metadata>
  <trk>
    <name><![CDATA[Tracé actuel: 01 AVR 2013 05:51]]></name>
    <trkseg>
      <trkpt lat="49.07501" lon="7.13555">
        <ele>239.51</ele>
        <time>2013-04-01T03:51:29Z</time>
      </trkpt>
      <trkpt lat="49.07502" lon="7.13553">
        <ele>239.02</ele>
        <time>2013-04-01T03:51:30Z</time>
      </trkpt>
      <trkpt lat="49.0753" lon="7.13543">
        <ele>237.1</ele>
        <time>2013-04-01T03:51:58Z</time>
      </trkpt>
      <trkpt lat="49.07539" lon="7.13543">
        <ele>233.74</ele>
        <time>2013-04-01T03:52:06Z</time>
      </trkpt>
      <trkpt lat="49.07542" lon="7.13545">
        <ele>230.37</ele>
        <time>2013-04-01T03:52:10Z</time>
      </trkpt>
      <trkpt lat="49.07544" lon="7.13546">
        <ele>229.41</ele>
        <time>2013-04-01T03:52:12Z</time>
      </trkpt>
      <trkpt lat="49.07548" lon="7.13548">
        <ele>226.05</ele>
        <time>2013-04-01T03:52:16Z</time>
      </trkpt>
      <trkpt lat="49.07553" lon="7.13552">
        <ele>222.68</ele>
        <time>2013-04-01T03:52:21Z</time>
      </trkpt>
      <trkpt lat="49.07554" lon="7.13553">
        <ele>222.68</ele>
        <time>2013-04-01T03:52:22Z</time>
      </trkpt>
      <trkpt lat="49.07562" lon="7.13558">
        <ele>219.32</ele>
        <time>2013-04-01T03:52:30Z</time>
      </trkpt>
      <trkpt lat="49.07575" lon="7.13568">
        <ele>215.95</ele>
        <time>2013-04-01T03:52:42Z</time>
      </trkpt>
      <trkpt lat="49.076" lon="7.13583">
        <ele>213.07</ele>
        <time>2013-04-01T03:53:03Z</time>
      </trkpt>
      <trkpt lat="49.07606" lon="7.13587">
        <ele>211.63</ele>
        <time>2013-04-01T03:53:22Z</time>
      </trkpt>
      <trkpt lat="49.07617" lon="7.13592">
        <ele>211.15</ele>
        <time>2013-04-01T03:53:43Z</time>
      </trkpt>
      <trkpt lat="49.0762" lon="7.13593">
        <ele>211.63</ele>
        <time>2013-04-01T03:54:01Z</time>
      </trkpt>
      <trkpt lat="49.07628" lon="7.13599">
        <ele>211.15</ele>
        <time>2013-04-01T03:54:33Z</time>
      </trkpt>
      <trkpt lat="49.07653" lon="7.13615">
        <ele>210.67</ele>
        <time>2013-04-01T03:54:57Z</time>
      </trkpt>
      <trkpt lat="49.07661" lon="7.13614">
        <ele>210.67</ele>
        <time>2013-04-01T03:55:19Z</time>
      </trkpt>
      <trkpt lat="49.07661" lon="7.13614">
        <ele>210.67</ele>
        <time>2013-04-01T03:55:35Z</time>
      </trkpt>
      <trkpt lat="49.07685" lon="7.13622">
        <ele>209.22</ele>
        <time>2013-04-01T03:55:56Z</time>
      </trkpt>
      <trkpt lat="49.07718" lon="7.13626">
        <ele>208.74</ele>
        <time>2013-04-01T03:56:24Z</time>
      </trkpt>
      <trkpt lat="49.07737" lon="7.13617">
        <ele>208.74</ele>
        <time>2013-04-01T03:56:46Z</time>
      </trkpt>
      <trkpt lat="49.07743" lon="7.13617">
        <ele>208.26</ele>
        <time>2013-04-01T03:56:52Z</time>
      </trkpt>
      <trkpt lat="49.07771" lon="7.13598">
        <ele>208.74</ele>
        <time>2013-04-01T03:57:19Z</time>
      </trkpt>
      <trkpt lat="49.07787" lon="7.1359">
        <ele>208.74</ele>
        <time>2013-04-01T03:57:40Z</time>
      </trkpt>
      <trkpt lat="49.07801" lon="7.13584">
        <ele>208.74</ele>
        <time>2013-04-01T03:58:02Z</time>
      </trkpt>
      <trkpt lat="49.0782" lon="7.13573">
        <ele>208.26</ele>
        <time>2013-04-01T03:58:22Z</time>
      </trkpt>
      <trkpt lat="49.07853" lon="7.1356">
        <ele>207.78</ele>
        <time>2013-04-01T03:58:49Z</time>
      </trkpt>
      <trkpt lat="49.07892" lon="7.13552">
        <ele>207.78</ele>
        <time>2013-04-01T03:59:19Z</time>
      </trkpt>
      <trkpt lat="49.07897" lon="7.13548">
        <ele>207.3</ele>
        <time>2013-04-01T03:59:41Z</time>
      </trkpt>
      <trkpt lat="49.07911" lon="7.13546">
        <ele>207.3</ele>
        <time>2013-04-01T04:00:00Z</time>
      </trkpt>
      <trkpt lat="49.07924" lon="7.13536">
        <ele>206.82</ele>
        <time>2013-04-01T04:00:14Z</time>
      </trkpt>
      <trkpt lat="49.07923" lon="7.13529">
        <ele>206.82</ele>
        <time>2013-04-01T04:00:19Z</time>
      </trkpt>
      <trkpt lat="49.07925" lon="7.13508">
        <ele>206.82</ele>
        <time>2013-04-01T04:00:36Z</time>
      </trkpt>
      <trkpt lat="49.07925" lon="7.13476">
        <ele>208.26</ele>
        <time>2013-04-01T04:00:52Z</time>
      </trkpt>
      <trkpt lat="49.07929" lon="7.13457">
        <ele>209.7</ele>
        <time>2013-04-01T04:01:04Z</time>
      </trkpt>
      <trkpt lat="49.07953" lon="7.13426">
        <ele>211.15</ele>
        <time>2013-04-01T04:01:30Z</time>
      </trkpt>
      <trkpt lat="49.07967" lon="7.13403">
        <ele>213.55</ele>
        <time>2013-04-01T04:01:50Z</time>
      </trkpt>
      <trkpt lat="49.07976" lon="7.13384">
        <ele>215.47</ele>
        <time>2013-04-01T04:02:05Z</time>
      </trkpt>
      <trkpt lat="49.07992" lon="7.13352">
        <ele>217.88</ele>
        <time>2013-04-01T04:02:29Z</time>
      </trkpt>
      <trkpt lat="49.07993" lon="7.1335">
        <ele>217.88</ele>
        <time>2013-04-01T04:02:30Z</time>
      </trkpt>
      <trkpt lat="49.08002" lon="7.13344">
        <ele>218.84</ele>
        <time>2013-04-01T04:02:50Z</time>
      </trkpt>
      <trkpt lat="49.08035" lon="7.13323">
        <ele>218.36</ele>
        <time>2013-04-01T04:03:19Z</time>
      </trkpt>
      <trkpt lat="49.08061" lon="7.13308">
        <ele>218.84</ele>
        <time>2013-04-01T04:03:41Z</time>
      </trkpt>
      <trkpt lat="49.08095" lon="7.13292">
        <ele>219.32</ele>
        <time>2013-04-01T04:04:07Z</time>
      </trkpt>
      <trkpt lat="49.08128" lon="7.13276">
        <ele>220.28</ele>
        <time>2013-04-01T04:04:37Z</time>
      </trkpt>
      <trkpt lat="49.08145" lon="7.13266">
        <ele>219.32</ele>
        <time>2013-04-01T04:05:05Z</time>
      </trkpt>
      <trkpt lat="49.08157" lon="7.13262">
        <ele>219.32</ele>
        <time>2013-04-01T04:05:27Z</time>
      </trkpt>
      <trkpt lat="49.08193" lon="7.13251">
        <ele>218.36</ele>
        <time>2013-04-01T04:05:54Z</time>
      </trkpt>
      <trkpt lat="49.08218" lon="7.13234">
        <ele>217.4</ele>
        <time>2013-04-01T04:06:18Z</time>
      </trkpt>
      <trkpt lat="49.0826" lon="7.13217">
        <ele>218.36</ele>
        <time>2013-04-01T04:06:48Z</time>
      </trkpt>
      <trkpt lat="49.08299" lon="7.13197">
        <ele>219.32</ele>
        <time>2013-04-01T04:07:19Z</time>
      </trkpt>
      <trkpt lat="49.0834" lon="7.13175">
        <ele>219.32</ele>
        <time>2013-04-01T04:07:50Z</time>
      </trkpt>
      <trkpt lat="49.08379" lon="7.13153">
        <ele>219.8</ele>
        <time>2013-04-01T04:08:19Z</time>
      </trkpt>
      <trkpt lat="49.08415" lon="7.13125">
        <ele>220.28</ele>
        <time>2013-04-01T04:08:48Z</time>
      </trkpt>
      <trkpt lat="49.08448" lon="7.13096">
        <ele>222.68</ele>
        <time>2013-04-01T04:09:17Z</time>
      </trkpt>
      <trkpt lat="49.08479" lon="7.13057">
        <ele>225.09</ele>
        <time>2013-04-01T04:09:48Z</time>
      </trkpt>
      <trkpt lat="49.08507" lon="7.13016">
        <ele>227.49</ele>
        <time>2013-04-01T04:10:19Z</time>
      </trkpt>
      <trkpt lat="49.08518" lon="7.12981">
        <ele>227.97</ele>
        <time>2013-04-01T04:10:39Z</time>
      </trkpt>
      <trkpt lat="49.08496" lon="7.12958">
        <ele>230.37</ele>
        <time>2013-04-01T04:11:02Z</time>
      </trkpt>
      <trkpt lat="49.08479" lon="7.12946">
        <ele>231.33</ele>
        <time>2013-04-01T04:11:21Z</time>
      </trkpt>
      <trkpt lat="49.08444" lon="7.12924">
        <ele>233.74</ele>
        <time>2013-04-01T04:11:50Z</time>
      </trkpt>
      <trkpt lat="49.08409" lon="7.12902">
        <ele>235.66</ele>
        <time>2013-04-01T04:12:20Z</time>
      </trkpt>
      <trkpt lat="49.08373" lon="7.12881">
        <ele>237.58</ele>
        <time>2013-04-01T04:12:49Z</time>
      </trkpt>
      <trkpt lat="49.08333" lon="7.12857">
        <ele>239.02</ele>
        <time>2013-04-01T04:13:22Z</time>
      </trkpt>
      <trkpt lat="49.08296" lon="7.1284">
        <ele>240.47</ele>
        <time>2013-04-01T04:13:51Z</time>
      </trkpt>
      <trkpt lat="49.08255" lon="7.12821">
        <ele>241.43</ele>
        <time>2013-04-01T04:14:23Z</time>
      </trkpt>
      <trkpt lat="49.08248" lon="7.12821">
        <ele>241.91</ele>
        <time>2013-04-01T04:14:28Z</time>
      </trkpt>
      <trkpt lat="49.08243" lon="7.12818">
        <ele>242.39</ele>
        <time>2013-04-01T04:14:32Z</time>
      </trkpt>
      <trkpt lat="49.08209" lon="7.12813">
        <ele>243.83</ele>
        <time>2013-04-01T04:15:00Z</time>
      </trkpt>
      <trkpt lat="49.08196" lon="7.12857">
        <ele>243.35</ele>
        <time>2013-04-01T04:15:24Z</time>
      </trkpt>
      <trkpt lat="49.08179" lon="7.12912">
        <ele>241.43</ele>
        <time>2013-04-01T04:15:53Z</time>
      </trkpt>
      <trkpt lat="49.08166" lon="7.12954">
        <ele>240.95</ele>
        <time>2013-04-01T04:16:18Z</time>
      </trkpt>
      <trkpt lat="49.0814" lon="7.12997">
        <ele>239.99</ele>
        <time>2013-04-01T04:16:45Z</time>
      </trkpt>
      <trkpt lat="49.08114" lon="7.13042">
        <ele>239.99</ele>
        <time>2013-04-01T04:17:12Z</time>
      </trkpt>
      <trkpt lat="49.08089" lon="7.13079">
        <ele>240.47</ele>
        <time>2013-04-01T04:17:39Z</time>
      </trkpt>
      <trkpt lat="49.08062" lon="7.13074">
        <ele>242.87</ele>
        <time>2013-04-01T04:18:01Z</time>
      </trkpt>
      <trkpt lat="49.08028" lon="7.13093">
        <ele>243.35</ele>
        <time>2013-04-01T04:18:29Z</time>
      </trkpt>
      <trkpt lat="49.07987" lon="7.13123">
        <ele>242.39</ele>
        <time>2013-04-01T04:19:01Z</time>
      </trkpt>
      <trkpt lat="49.07952" lon="7.1315">
        <ele>240.95</ele>
        <time>2013-04-01T04:19:29Z</time>
      </trkpt>
      <trkpt lat="49.07919" lon="7.13174">
        <ele>239.02</ele>
        <time>2013-04-01T04:19:55Z</time>
      </trkpt>
      <trkpt lat="49.07881" lon="7.13188">
        <ele>237.1</ele>
        <time>2013-04-01T04:20:23Z</time>
      </trkpt>
      <trkpt lat="49.07855" lon="7.13158">
        <ele>238.54</ele>
        <time>2013-04-01T04:20:49Z</time>
      </trkpt>
      <trkpt lat="49.07828" lon="7.1316">
        <ele>239.51</ele>
        <time>2013-04-01T04:21:10Z</time>
      </trkpt>
      <trkpt lat="49.07823" lon="7.1316">
        <ele>239.51</ele>
        <time>2013-04-01T04:21:14Z</time>
      </trkpt>
      <trkpt lat="49.07791" lon="7.13176">
        <ele>240.47</ele>
        <time>2013-04-01T04:21:40Z</time>
      </trkpt>
      <trkpt lat="49.07775" lon="7.13187">
        <ele>239.99</ele>
        <time>2013-04-01T04:21:54Z</time>
      </trkpt>
      <trkpt lat="49.07768" lon="7.1319">
        <ele>239.99</ele>
        <time>2013-04-01T04:22:00Z</time>
      </trkpt>
      <trkpt lat="49.07748" lon="7.13198">
        <ele>239.02</ele>
        <time>2013-04-01T04:22:16Z</time>
      </trkpt>
      <trkpt lat="49.07742" lon="7.13199">
        <ele>239.02</ele>
        <time>2013-04-01T04:22:21Z</time>
      </trkpt>
      <trkpt lat="49.07703" lon="7.1321">
        <ele>238.54</ele>
        <time>2013-04-01T04:22:50Z</time>
      </trkpt>
      <trkpt lat="49.07661" lon="7.13221">
        <ele>238.06</ele>
        <time>2013-04-01T04:23:21Z</time>
      </trkpt>
      <trkpt lat="49.07645" lon="7.13227">
        <ele>237.1</ele>
        <time>2013-04-01T04:23:44Z</time>
      </trkpt>
      <trkpt lat="49.07645" lon="7.13259">
        <ele>236.14</ele>
        <time>2013-04-01T04:24:10Z</time>
      </trkpt>
      <trkpt lat="49.07645" lon="7.13293">
        <ele>234.7</ele>
        <time>2013-04-01T04:24:36Z</time>
      </trkpt>
      <trkpt lat="49.07646" lon="7.13351">
        <ele>231.81</ele>
        <time>2013-04-01T04:25:04Z</time>
      </trkpt>
      <trkpt lat="49.0765" lon="7.13401">
        <ele>228.45</ele>
        <time>2013-04-01T04:25:29Z</time>
      </trkpt>
      <trkpt lat="49.07641" lon="7.13447">
        <ele>227.01</ele>
        <time>2013-04-01T04:25:52Z</time>
      </trkpt>
      <trkpt lat="49.07608" lon="7.13463">
        <ele>225.09</ele>
        <time>2013-04-01T04:26:17Z</time>
      </trkpt>
      <trkpt lat="49.07574" lon="7.13474">
        <ele>223.16</ele>
        <time>2013-04-01T04:26:44Z</time>
      </trkpt>
      <trkpt lat="49.07587" lon="7.1352">
        <ele>221.72</ele>
        <time>2013-04-01T04:27:13Z</time>
      </trkpt>
      <trkpt lat="49.07595" lon="7.13524">
        <ele>221.24</ele>
        <time>2013-04-01T04:27:19Z</time>
      </trkpt>
      <trkpt lat="49.07619" lon="7.13523">
        <ele>219.8</ele>
        <time>2013-04-01T04:27:38Z</time>
      </trkpt>
      <trkpt lat="49.0765" lon="7.13523">
        <ele>217.4</ele>
        <time>2013-04-01T04:28:01Z</time>
      </trkpt>
      <trkpt lat="49.07654" lon="7.13529">
        <ele>217.4</ele>
        <time>2013-04-01T04:28:19Z</time>
      </trkpt>
      <trkpt lat="49.07664" lon="7.13575">
        <ele>214.03</ele>
        <time>2013-04-01T04:28:44Z</time>
      </trkpt>
      <trkpt lat="49.07665" lon="7.13592">
        <ele>213.07</ele>
        <time>2013-04-01T04:28:59Z</time>
      </trkpt>
      <trkpt lat="49.07663" lon="7.13611">
        <ele>212.11</ele>
        <time>2013-04-01T04:29:08Z</time>
      </trkpt>
      <trkpt lat="49.07631" lon="7.13607">
        <ele>213.07</ele>
        <time>2013-04-01T04:29:31Z</time>
      </trkpt>
      <trkpt lat="49.07604" lon="7.13589">
        <ele>213.55</ele>
        <time>2013-04-01T04:29:54Z</time>
      </trkpt>
      <trkpt lat="49.07569" lon="7.13569">
        <ele>213.55</ele>
        <time>2013-04-01T04:30:20Z</time>
      </trkpt>
      <trkpt lat="49.07534" lon="7.13545">
        <ele>215.47</ele>
        <time>2013-04-01T04:30:50Z</time>
      </trkpt>
      <trkpt lat="49.07504" lon="7.13543">
        <ele>219.32</ele>
        <time>2013-04-01T04:31:17Z</time>
      </trkpt>
      <trkpt lat="49.07495" lon="7.13547">
        <ele>219.32</ele>
        <time>2013-04-01T04:31:41Z</time>
      </trkpt>
      <trkpt lat="49.07492" lon="7.13549">
        <ele>219.32</ele>
        <time>2013-04-01T04:31:54Z</time>
      </trkpt>
    </trkseg>
  </trk>
  <trk>
    <name><![CDATA[Tracé actuel: 02 AVR 2013 06:06]]></name>
    <trkseg>
      <trkpt lat="49.07512" lon="7.13533">
        <ele>261.62</ele>
        <time>2013-04-02T04:06:23Z</time>
      </trkpt>
      <trkpt lat="49.07523" lon="7.13539">
        <ele>260.65</ele>
        <time>2013-04-02T04:06:45Z</time>
      </trkpt>
      <trkpt lat="49.07527" lon="7.1354">
        <ele>259.69</ele>
        <time>2013-04-02T04:07:02Z</time>
      </trkpt>
      <trkpt lat="49.07524" lon="7.13538">
        <ele>255.85</ele>
        <time>2013-04-02T04:07:08Z</time>
      </trkpt>
      <trkpt lat="49.07519" lon="7.13537">
        <ele>250.56</ele>
        <time>2013-04-02T04:07:13Z</time>
      </trkpt>
      <trkpt lat="49.07515" lon="7.13536">
        <ele>249.12</ele>
        <time>2013-04-02T04:07:16Z</time>
      </trkpt>
      <trkpt lat="49.07512" lon="7.13537">
        <ele>245.27</ele>
        <time>2013-04-02T04:07:19Z</time>
      </trkpt>
      <trkpt lat="49.07504" lon="7.13543">
        <ele>241.43</ele>
        <time>2013-04-02T04:07:24Z</time>
      </trkpt>
      <trkpt lat="49.07502" lon="7.13545">
        <ele>238.06</ele>
        <time>2013-04-02T04:07:29Z</time>
      </trkpt>
      <trkpt lat="49.07503" lon="7.13545">
        <ele>236.62</ele>
        <time>2013-04-02T04:07:31Z</time>
      </trkpt>
      <trkpt lat="49.07503" lon="7.13545">
        <ele>234.22</ele>
        <time>2013-04-02T04:07:36Z</time>
      </trkpt>
      <trkpt lat="49.07502" lon="7.13546">
        <ele>232.3</ele>
        <time>2013-04-02T04:07:39Z</time>
      </trkpt>
      <trkpt lat="49.075" lon="7.1356">
        <ele>229.41</ele>
        <time>2013-04-02T04:07:48Z</time>
      </trkpt>
      <trkpt lat="49.07499" lon="7.13579">
        <ele>226.05</ele>
        <time>2013-04-02T04:08:04Z</time>
      </trkpt>
      <trkpt lat="49.07497" lon="7.13595">
        <ele>224.12</ele>
        <time>2013-04-02T04:08:20Z</time>
      </trkpt>
      <trkpt lat="49.07493" lon="7.13618">
        <ele>221.72</ele>
        <time>2013-04-02T04:08:41Z</time>
      </trkpt>
      <trkpt lat="49.07492" lon="7.13625">
        <ele>221.72</ele>
        <time>2013-04-02T04:09:00Z</time>
      </trkpt>
      <trkpt lat="49.07483" lon="7.13641">
        <ele>220.28</ele>
        <time>2013-04-02T04:09:21Z</time>
      </trkpt>
      <trkpt lat="49.07475" lon="7.13651">
        <ele>217.4</ele>
        <time>2013-04-02T04:09:40Z</time>
      </trkpt>
      <trkpt lat="49.07468" lon="7.13654">
        <ele>217.4</ele>
        <time>2013-04-02T04:10:01Z</time>
      </trkpt>
      <trkpt lat="49.07483" lon="7.13637">
        <ele>219.32</ele>
        <time>2013-04-02T04:10:32Z</time>
      </trkpt>
      <trkpt lat="49.07484" lon="7.13636">
        <ele>219.8</ele>
        <time>2013-04-02T04:10:34Z</time>
      </trkpt>
      <trkpt lat="49.07487" lon="7.13626">
        <ele>220.76</ele>
        <time>2013-04-02T04:10:40Z</time>
      </trkpt>
      <trkpt lat="49.07492" lon="7.13589">
        <ele>221.72</ele>
        <time>2013-04-02T04:11:04Z</time>
      </trkpt>
      <trkpt lat="49.07495" lon="7.13577">
        <ele>222.68</ele>
        <time>2013-04-02T04:11:12Z</time>
      </trkpt>
      <trkpt lat="49.07499" lon="7.13548">
        <ele>222.2</ele>
        <time>2013-04-02T04:11:35Z</time>
      </trkpt>
      <trkpt lat="49.07498" lon="7.13548">
        <ele>222.2</ele>
        <time>2013-04-02T04:11:36Z</time>
      </trkpt>
      <trkpt lat="49.07494" lon="7.13543">
        <ele>222.2</ele>
        <time>2013-04-02T04:12:00Z</time>
      </trkpt>
    </trkseg>
  </trk>
  <trk>
    <name><![CDATA[Tracé actuel: 03 AVR 2013 05:47]]></name>
    <trkseg>
      <trkpt lat="49.07488" lon="7.13507">
        <ele>214.51</ele>
        <time>2013-04-03T03:47:28Z</time>
      </trkpt>
      <trkpt lat="49.07503" lon="7.13538">
        <ele>214.51</ele>
        <time>2013-04-03T03:47:43Z</time>
      </trkpt>
      <trkpt lat="49.07505" lon="7.13543">
        <ele>214.03</ele>
        <time>2013-04-03T03:47:47Z</time>
      </trkpt>
      <trkpt lat="49.07512" lon="7.13541">
        <ele>214.03</ele>
        <time>2013-04-03T03:47:56Z</time>
      </trkpt>
      <trkpt lat="49.07512" lon="7.13534">
        <ele>214.03</ele>
        <time>2013-04-03T03:48:05Z</time>
      </trkpt>
      <trkpt lat="49.07535" lon="7.13543">
        <ele>214.99</ele>
        <time>2013-04-03T03:48:27Z</time>
      </trkpt>
      <trkpt lat="49.07537" lon="7.13544">
        <ele>214.99</ele>
        <time>2013-04-03T03:48:29Z</time>
      </trkpt>
      <trkpt lat="49.07543" lon="7.13546">
        <ele>216.43</ele>
        <time>2013-04-03T03:48:35Z</time>
      </trkpt>
      <trkpt lat="49.07572" lon="7.13563">
        <ele>215.47</ele>
        <time>2013-04-03T03:49:00Z</time>
      </trkpt>
      <trkpt lat="49.07597" lon="7.13582">
        <ele>215.47</ele>
        <time>2013-04-03T03:49:25Z</time>
      </trkpt>
      <trkpt lat="49.07608" lon="7.13589">
        <ele>215.47</ele>
        <time>2013-04-03T03:49:47Z</time>
      </trkpt>
      <trkpt lat="49.0763" lon="7.13601">
        <ele>215.47</ele>
        <time>2013-04-03T03:50:07Z</time>
      </trkpt>
      <trkpt lat="49.07658" lon="7.13614">
        <ele>214.51</ele>
        <time>2013-04-03T03:50:32Z</time>
      </trkpt>
      <trkpt lat="49.07662" lon="7.13618">
        <ele>214.51</ele>
        <time>2013-04-03T03:50:35Z</time>
      </trkpt>
      <trkpt lat="49.07683" lon="7.13624">
        <ele>213.55</ele>
        <time>2013-04-03T03:50:58Z</time>
      </trkpt>
      <trkpt lat="49.07697" lon="7.13624">
        <ele>212.59</ele>
        <time>2013-04-03T03:51:17Z</time>
      </trkpt>
      <trkpt lat="49.07698" lon="7.13624">
        <ele>213.07</ele>
        <time>2013-04-03T03:51:18Z</time>
      </trkpt>
      <trkpt lat="49.07721" lon="7.13627">
        <ele>212.59</ele>
        <time>2013-04-03T03:51:43Z</time>
      </trkpt>
      <trkpt lat="49.07726" lon="7.13623">
        <ele>212.11</ele>
        <time>2013-04-03T03:52:04Z</time>
      </trkpt>
      <trkpt lat="49.07756" lon="7.13606">
        <ele>212.11</ele>
        <time>2013-04-03T03:52:30Z</time>
      </trkpt>
      <trkpt lat="49.07782" lon="7.13594">
        <ele>212.11</ele>
        <time>2013-04-03T03:52:56Z</time>
      </trkpt>
      <trkpt lat="49.07799" lon="7.13585">
        <ele>212.59</ele>
        <time>2013-04-03T03:53:19Z</time>
      </trkpt>
      <trkpt lat="49.078" lon="7.13585">
        <ele>212.59</ele>
        <time>2013-04-03T03:53:22Z</time>
      </trkpt>
      <trkpt lat="49.07803" lon="7.13582">
        <ele>212.11</ele>
        <time>2013-04-03T03:53:26Z</time>
      </trkpt>
      <trkpt lat="49.07831" lon="7.13569">
        <ele>212.11</ele>
        <time>2013-04-03T03:53:52Z</time>
      </trkpt>
      <trkpt lat="49.07833" lon="7.1357">
        <ele>212.11</ele>
        <time>2013-04-03T03:53:54Z</time>
      </trkpt>
      <trkpt lat="49.07859" lon="7.13562">
        <ele>211.63</ele>
        <time>2013-04-03T03:54:19Z</time>
      </trkpt>
      <trkpt lat="49.07896" lon="7.13553">
        <ele>210.19</ele>
        <time>2013-04-03T03:54:49Z</time>
      </trkpt>
      <trkpt lat="49.07911" lon="7.13549">
        <ele>210.67</ele>
        <time>2013-04-03T03:55:09Z</time>
      </trkpt>
      <trkpt lat="49.07921" lon="7.13544">
        <ele>209.7</ele>
        <time>2013-04-03T03:55:18Z</time>
      </trkpt>
      <trkpt lat="49.07923" lon="7.13532">
        <ele>210.67</ele>
        <time>2013-04-03T03:55:25Z</time>
      </trkpt>
      <trkpt lat="49.07924" lon="7.1349">
        <ele>211.63</ele>
        <time>2013-04-03T03:55:50Z</time>
      </trkpt>
      <trkpt lat="49.0793" lon="7.13453">
        <ele>213.07</ele>
        <time>2013-04-03T03:56:14Z</time>
      </trkpt>
      <trkpt lat="49.0795" lon="7.1343">
        <ele>214.99</ele>
        <time>2013-04-03T03:56:35Z</time>
      </trkpt>
      <trkpt lat="49.07969" lon="7.13397">
        <ele>217.4</ele>
        <time>2013-04-03T03:57:00Z</time>
      </trkpt>
      <trkpt lat="49.07975" lon="7.13388">
        <ele>218.36</ele>
        <time>2013-04-03T03:57:19Z</time>
      </trkpt>
      <trkpt lat="49.07976" lon="7.13379">
        <ele>219.32</ele>
        <time>2013-04-03T03:57:40Z</time>
      </trkpt>
      <trkpt lat="49.07983" lon="7.13369">
        <ele>220.76</ele>
        <time>2013-04-03T03:57:49Z</time>
      </trkpt>
      <trkpt lat="49.08006" lon="7.13341">
        <ele>223.64</ele>
        <time>2013-04-03T03:58:13Z</time>
      </trkpt>
      <trkpt lat="49.08006" lon="7.13343">
        <ele>223.64</ele>
        <time>2013-04-03T03:58:15Z</time>
      </trkpt>
      <trkpt lat="49.08012" lon="7.13337">
        <ele>222.68</ele>
        <time>2013-04-03T03:58:21Z</time>
      </trkpt>
      <trkpt lat="49.0805" lon="7.13314">
        <ele>222.2</ele>
        <time>2013-04-03T03:58:50Z</time>
      </trkpt>
      <trkpt lat="49.08055" lon="7.13314">
        <ele>222.2</ele>
        <time>2013-04-03T03:58:57Z</time>
      </trkpt>
      <trkpt lat="49.08093" lon="7.13298">
        <ele>222.68</ele>
        <time>2013-04-03T03:59:26Z</time>
      </trkpt>
      <trkpt lat="49.08129" lon="7.13277">
        <ele>223.16</ele>
        <time>2013-04-03T03:59:54Z</time>
      </trkpt>
      <trkpt lat="49.08157" lon="7.13264">
        <ele>223.16</ele>
        <time>2013-04-03T04:00:18Z</time>
      </trkpt>
      <trkpt lat="49.08196" lon="7.13249">
        <ele>221.72</ele>
        <time>2013-04-03T04:00:45Z</time>
      </trkpt>
      <trkpt lat="49.08234" lon="7.13229">
        <ele>220.76</ele>
        <time>2013-04-03T04:01:13Z</time>
      </trkpt>
      <trkpt lat="49.08276" lon="7.1321">
        <ele>222.2</ele>
        <time>2013-04-03T04:01:44Z</time>
      </trkpt>
      <trkpt lat="49.08318" lon="7.13187">
        <ele>222.2</ele>
        <time>2013-04-03T04:02:16Z</time>
      </trkpt>
      <trkpt lat="49.08349" lon="7.13172">
        <ele>223.16</ele>
        <time>2013-04-03T04:02:39Z</time>
      </trkpt>
      <trkpt lat="49.08356" lon="7.13168">
        <ele>222.68</ele>
        <time>2013-04-03T04:02:45Z</time>
      </trkpt>
      <trkpt lat="49.08391" lon="7.13142">
        <ele>223.16</ele>
        <time>2013-04-03T04:03:14Z</time>
      </trkpt>
      <trkpt lat="49.08425" lon="7.13118">
        <ele>224.12</ele>
        <time>2013-04-03T04:03:40Z</time>
      </trkpt>
      <trkpt lat="49.0845" lon="7.13091">
        <ele>225.09</ele>
        <time>2013-04-03T04:04:04Z</time>
      </trkpt>
      <trkpt lat="49.08479" lon="7.13056">
        <ele>227.97</ele>
        <time>2013-04-03T04:04:32Z</time>
      </trkpt>
      <trkpt lat="49.08506" lon="7.13016">
        <ele>229.41</ele>
        <time>2013-04-03T04:05:01Z</time>
      </trkpt>
      <trkpt lat="49.08507" lon="7.13016">
        <ele>229.41</ele>
        <time>2013-04-03T04:05:04Z</time>
      </trkpt>
      <trkpt lat="49.08508" lon="7.13013">
        <ele>229.41</ele>
        <time>2013-04-03T04:05:06Z</time>
      </trkpt>
      <trkpt lat="49.08517" lon="7.12989">
        <ele>230.37</ele>
        <time>2013-04-03T04:05:23Z</time>
      </trkpt>
      <trkpt lat="49.08504" lon="7.12966">
        <ele>232.78</ele>
        <time>2013-04-03T04:05:43Z</time>
      </trkpt>
      <trkpt lat="49.0848" lon="7.12948">
        <ele>234.22</ele>
        <time>2013-04-03T04:06:06Z</time>
      </trkpt>
      <trkpt lat="49.08445" lon="7.12926">
        <ele>236.62</ele>
        <time>2013-04-03T04:06:35Z</time>
      </trkpt>
      <trkpt lat="49.08412" lon="7.12905">
        <ele>238.54</ele>
        <time>2013-04-03T04:07:02Z</time>
      </trkpt>
      <trkpt lat="49.08376" lon="7.12883">
        <ele>240.47</ele>
        <time>2013-04-03T04:07:31Z</time>
      </trkpt>
      <trkpt lat="49.08347" lon="7.12868">
        <ele>241.91</ele>
        <time>2013-04-03T04:07:59Z</time>
      </trkpt>
      <trkpt lat="49.08316" lon="7.12852">
        <ele>242.39</ele>
        <time>2013-04-03T04:08:24Z</time>
      </trkpt>
      <trkpt lat="49.08281" lon="7.12835">
        <ele>243.35</ele>
        <time>2013-04-03T04:08:52Z</time>
      </trkpt>
      <trkpt lat="49.08245" lon="7.12819">
        <ele>244.79</ele>
        <time>2013-04-03T04:09:20Z</time>
      </trkpt>
      <trkpt lat="49.08208" lon="7.12819">
        <ele>246.23</ele>
        <time>2013-04-03T04:09:51Z</time>
      </trkpt>
      <trkpt lat="49.08197" lon="7.12861">
        <ele>245.75</ele>
        <time>2013-04-03T04:10:16Z</time>
      </trkpt>
      <trkpt lat="49.08179" lon="7.12912">
        <ele>243.35</ele>
        <time>2013-04-03T04:10:43Z</time>
      </trkpt>
      <trkpt lat="49.0816" lon="7.12974">
        <ele>242.39</ele>
        <time>2013-04-03T04:11:13Z</time>
      </trkpt>
      <trkpt lat="49.08142" lon="7.12997">
        <ele>241.43</ele>
        <time>2013-04-03T04:11:31Z</time>
      </trkpt>
      <trkpt lat="49.08114" lon="7.13046">
        <ele>241.91</ele>
        <time>2013-04-03T04:12:01Z</time>
      </trkpt>
      <trkpt lat="49.08102" lon="7.13061">
        <ele>242.39</ele>
        <time>2013-04-03T04:12:16Z</time>
      </trkpt>
      <trkpt lat="49.08093" lon="7.13076">
        <ele>241.91</ele>
        <time>2013-04-03T04:12:26Z</time>
      </trkpt>
      <trkpt lat="49.0809" lon="7.13079">
        <ele>241.91</ele>
        <time>2013-04-03T04:12:28Z</time>
      </trkpt>
      <trkpt lat="49.08079" lon="7.13071">
        <ele>242.87</ele>
        <time>2013-04-03T04:12:38Z</time>
      </trkpt>
      <trkpt lat="49.08046" lon="7.13084">
        <ele>244.79</ele>
        <time>2013-04-03T04:13:03Z</time>
      </trkpt>
      <trkpt lat="49.08014" lon="7.13102">
        <ele>244.79</ele>
        <time>2013-04-03T04:13:28Z</time>
      </trkpt>
      <trkpt lat="49.07989" lon="7.13123">
        <ele>243.83</ele>
        <time>2013-04-03T04:13:50Z</time>
      </trkpt>
      <trkpt lat="49.07958" lon="7.13147">
        <ele>242.39</ele>
        <time>2013-04-03T04:14:15Z</time>
      </trkpt>
      <trkpt lat="49.07929" lon="7.13169">
        <ele>240.95</ele>
        <time>2013-04-03T04:14:37Z</time>
      </trkpt>
      <trkpt lat="49.07899" lon="7.13191">
        <ele>238.54</ele>
        <time>2013-04-03T04:15:00Z</time>
      </trkpt>
      <trkpt lat="49.0786" lon="7.13172">
        <ele>238.06</ele>
        <time>2013-04-03T04:15:27Z</time>
      </trkpt>
      <trkpt lat="49.07832" lon="7.13161">
        <ele>240.47</ele>
        <time>2013-04-03T04:15:50Z</time>
      </trkpt>
      <trkpt lat="49.07802" lon="7.13169">
        <ele>240.47</ele>
        <time>2013-04-03T04:16:12Z</time>
      </trkpt>
      <trkpt lat="49.07762" lon="7.13194">
        <ele>240.47</ele>
        <time>2013-04-03T04:16:42Z</time>
      </trkpt>
      <trkpt lat="49.07744" lon="7.132">
        <ele>240.47</ele>
        <time>2013-04-03T04:16:59Z</time>
      </trkpt>
      <trkpt lat="49.07703" lon="7.13213">
        <ele>239.02</ele>
        <time>2013-04-03T04:17:29Z</time>
      </trkpt>
      <trkpt lat="49.07686" lon="7.13214">
        <ele>238.54</ele>
        <time>2013-04-03T04:17:47Z</time>
      </trkpt>
      <trkpt lat="49.07653" lon="7.13222">
        <ele>238.06</ele>
        <time>2013-04-03T04:18:10Z</time>
      </trkpt>
      <trkpt lat="49.07645" lon="7.13265">
        <ele>235.66</ele>
        <time>2013-04-03T04:18:34Z</time>
      </trkpt>
      <trkpt lat="49.07645" lon="7.13313">
        <ele>233.74</ele>
        <time>2013-04-03T04:18:58Z</time>
      </trkpt>
      <trkpt lat="49.07649" lon="7.1337">
        <ele>230.37</ele>
        <time>2013-04-03T04:19:26Z</time>
      </trkpt>
      <trkpt lat="49.07651" lon="7.13409">
        <ele>227.97</ele>
        <time>2013-04-03T04:19:48Z</time>
      </trkpt>
      <trkpt lat="49.07649" lon="7.13425">
        <ele>227.01</ele>
        <time>2013-04-03T04:19:56Z</time>
      </trkpt>
      <trkpt lat="49.0762" lon="7.13461">
        <ele>226.05</ele>
        <time>2013-04-03T04:20:22Z</time>
      </trkpt>
      <trkpt lat="49.07592" lon="7.13466">
        <ele>224.12</ele>
        <time>2013-04-03T04:20:50Z</time>
      </trkpt>
      <trkpt lat="49.07575" lon="7.135">
        <ele>222.68</ele>
        <time>2013-04-03T04:21:15Z</time>
      </trkpt>
      <trkpt lat="49.07593" lon="7.13524">
        <ele>222.2</ele>
        <time>2013-04-03T04:21:38Z</time>
      </trkpt>
      <trkpt lat="49.07596" lon="7.13522">
        <ele>221.72</ele>
        <time>2013-04-03T04:22:03Z</time>
      </trkpt>
      <trkpt lat="49.07604" lon="7.13528">
        <ele>220.76</ele>
        <time>2013-04-03T04:22:27Z</time>
      </trkpt>
      <trkpt lat="49.07609" lon="7.13527">
        <ele>220.28</ele>
        <time>2013-04-03T04:22:31Z</time>
      </trkpt>
      <trkpt lat="49.07645" lon="7.13525">
        <ele>217.88</ele>
        <time>2013-04-03T04:22:56Z</time>
      </trkpt>
      <trkpt lat="49.07659" lon="7.13553">
        <ele>214.99</ele>
        <time>2013-04-03T04:23:14Z</time>
      </trkpt>
      <trkpt lat="49.07666" lon="7.13598">
        <ele>212.11</ele>
        <time>2013-04-03T04:23:36Z</time>
      </trkpt>
      <trkpt lat="49.07666" lon="7.13613">
        <ele>211.63</ele>
        <time>2013-04-03T04:23:42Z</time>
      </trkpt>
      <trkpt lat="49.0766" lon="7.13617">
        <ele>211.15</ele>
        <time>2013-04-03T04:23:46Z</time>
      </trkpt>
      <trkpt lat="49.07628" lon="7.13607">
        <ele>212.59</ele>
        <time>2013-04-03T04:24:10Z</time>
      </trkpt>
      <trkpt lat="49.07604" lon="7.1359">
        <ele>212.59</ele>
        <time>2013-04-03T04:24:33Z</time>
      </trkpt>
      <trkpt lat="49.07574" lon="7.13573">
        <ele>213.55</ele>
        <time>2013-04-03T04:24:57Z</time>
      </trkpt>
      <trkpt lat="49.07533" lon="7.13546">
        <ele>215.47</ele>
        <time>2013-04-03T04:25:30Z</time>
      </trkpt>
      <trkpt lat="49.07506" lon="7.13541">
        <ele>218.84</ele>
        <time>2013-04-03T04:25:54Z</time>
      </trkpt>
      <trkpt lat="49.07495" lon="7.13551">
        <ele>218.84</ele>
        <time>2013-04-03T04:26:13Z</time>
      </trkpt>
      <trkpt lat="49.07491" lon="7.13542">
        <ele>218.84</ele>
        <time>2013-04-03T04:26:39Z</time>
      </trkpt>
      <trkpt lat="49.07491" lon="7.13541">
        <ele>218.84</ele>
        <time>2013-04-03T04:26:54Z</time>
      </trkpt>
      <trkpt lat="49.07511" lon="7.13494">
        <ele>218.84</ele>
        <time>2013-04-03T04:27:26Z</time>
      </trkpt>
      <trkpt lat="49.07512" lon="7.13491">
        <ele>218.84</ele>
        <time>2013-04-03T04:27:27Z</time>
      </trkpt>
      <trkpt lat="49.07523" lon="7.13481">
        <ele>218.84</ele>
        <time>2013-04-03T04:27:35Z</time>
      </trkpt>
      <trkpt lat="49.07523" lon="7.13467">
        <ele>218.84</ele>
        <time>2013-04-03T04:27:36Z</time>
      </trkpt>
      <trkpt lat="49.07524" lon="7.13469">
        <ele>218.84</ele>
        <time>2013-04-03T04:27:37Z</time>
      </trkpt>
    </trkseg>
  </trk>
  <trk>
    <name><![CDATA[Tracé actuel: 04 AVR 2013 05:48]]></name>
    <trkseg>
      <trkpt lat="49.07496" lon="7.13493">
        <ele>241.43</ele>
        <time>2013-04-04T03:48:00Z</time>
      </trkpt>
      <trkpt lat="49.07496" lon="7.13493">
        <ele>241.43</ele>
        <time>2013-04-04T03:48:01Z</time>
      </trkpt>
      <trkpt lat="49.07496" lon="7.13492">
        <ele>242.39</ele>
        <time>2013-04-04T03:48:02Z</time>
      </trkpt>
      <trkpt lat="49.07497" lon="7.13491">
        <ele>240.95</ele>
        <time>2013-04-04T03:48:04Z</time>
      </trkpt>
      <trkpt lat="49.07517" lon="7.13534">
        <ele>239.51</ele>
        <time>2013-04-04T03:48:28Z</time>
      </trkpt>
      <trkpt lat="49.07522" lon="7.13536">
        <ele>239.02</ele>
        <time>2013-04-04T03:48:32Z</time>
      </trkpt>
      <trkpt lat="49.07529" lon="7.13541">
        <ele>236.62</ele>
        <time>2013-04-04T03:48:37Z</time>
      </trkpt>
      <trkpt lat="49.07535" lon="7.13543">
        <ele>233.26</ele>
        <time>2013-04-04T03:48:43Z</time>
      </trkpt>
      <trkpt lat="49.07542" lon="7.13547">
        <ele>231.33</ele>
        <time>2013-04-04T03:48:48Z</time>
      </trkpt>
      <trkpt lat="49.07554" lon="7.13553">
        <ele>227.97</ele>
        <time>2013-04-04T03:48:57Z</time>
      </trkpt>
      <trkpt lat="49.07564" lon="7.13558">
        <ele>224.61</ele>
        <time>2013-04-04T03:49:05Z</time>
      </trkpt>
      <trkpt lat="49.07573" lon="7.13563">
        <ele>221.24</ele>
        <time>2013-04-04T03:49:13Z</time>
      </trkpt>
      <trkpt lat="49.07575" lon="7.13564">
        <ele>218.36</ele>
        <time>2013-04-04T03:49:24Z</time>
      </trkpt>
      <trkpt lat="49.07579" lon="7.13567">
        <ele>215.47</ele>
        <time>2013-04-04T03:49:44Z</time>
      </trkpt>
      <trkpt lat="49.07593" lon="7.13579">
        <ele>214.03</ele>
        <time>2013-04-04T03:50:03Z</time>
      </trkpt>
      <trkpt lat="49.07618" lon="7.13593">
        <ele>214.03</ele>
        <time>2013-04-04T03:50:27Z</time>
      </trkpt>
      <trkpt lat="49.07623" lon="7.13595">
        <ele>214.03</ele>
        <time>2013-04-04T03:50:55Z</time>
      </trkpt>
      <trkpt lat="49.07625" lon="7.13596">
        <ele>214.51</ele>
        <time>2013-04-04T03:50:56Z</time>
      </trkpt>
      <trkpt lat="49.07658" lon="7.13615">
        <ele>213.55</ele>
        <time>2013-04-04T03:51:22Z</time>
      </trkpt>
      <trkpt lat="49.07682" lon="7.13624">
        <ele>211.63</ele>
        <time>2013-04-04T03:51:43Z</time>
      </trkpt>
      <trkpt lat="49.07719" lon="7.13626">
        <ele>210.67</ele>
        <time>2013-04-04T03:52:09Z</time>
      </trkpt>
      <trkpt lat="49.07739" lon="7.1362">
        <ele>210.19</ele>
        <time>2013-04-04T03:52:31Z</time>
      </trkpt>
      <trkpt lat="49.07763" lon="7.13605">
        <ele>210.19</ele>
        <time>2013-04-04T03:52:58Z</time>
      </trkpt>
      <trkpt lat="49.0777" lon="7.136">
        <ele>209.22</ele>
        <time>2013-04-04T03:53:15Z</time>
      </trkpt>
      <trkpt lat="49.07771" lon="7.136">
        <ele>209.22</ele>
        <time>2013-04-04T03:53:16Z</time>
      </trkpt>
      <trkpt lat="49.07775" lon="7.13598">
        <ele>210.67</ele>
        <time>2013-04-04T03:53:20Z</time>
      </trkpt>
      <trkpt lat="49.07777" lon="7.13597">
        <ele>211.15</ele>
        <time>2013-04-04T03:53:21Z</time>
      </trkpt>
      <trkpt lat="49.07789" lon="7.13589">
        <ele>210.67</ele>
        <time>2013-04-04T03:53:34Z</time>
      </trkpt>
      <trkpt lat="49.07801" lon="7.13583">
        <ele>210.67</ele>
        <time>2013-04-04T03:53:54Z</time>
      </trkpt>
      <trkpt lat="49.07807" lon="7.1358">
        <ele>210.67</ele>
        <time>2013-04-04T03:54:12Z</time>
      </trkpt>
      <trkpt lat="49.0782" lon="7.13572">
        <ele>210.67</ele>
        <time>2013-04-04T03:54:36Z</time>
      </trkpt>
      <trkpt lat="49.07849" lon="7.13558">
        <ele>209.7</ele>
        <time>2013-04-04T03:55:00Z</time>
      </trkpt>
      <trkpt lat="49.07883" lon="7.13551">
        <ele>209.22</ele>
        <time>2013-04-04T03:55:29Z</time>
      </trkpt>
      <trkpt lat="49.0792" lon="7.13541">
        <ele>208.74</ele>
        <time>2013-04-04T03:55:57Z</time>
      </trkpt>
      <trkpt lat="49.07919" lon="7.13544">
        <ele>209.22</ele>
        <time>2013-04-04T03:56:07Z</time>
      </trkpt>
      <trkpt lat="49.07923" lon="7.13536">
        <ele>209.22</ele>
        <time>2013-04-04T03:56:12Z</time>
      </trkpt>
      <trkpt lat="49.07923" lon="7.1353">
        <ele>208.74</ele>
        <time>2013-04-04T03:56:15Z</time>
      </trkpt>
      <trkpt lat="49.07922" lon="7.13499">
        <ele>209.7</ele>
        <time>2013-04-04T03:56:36Z</time>
      </trkpt>
      <trkpt lat="49.07922" lon="7.13493">
        <ele>209.7</ele>
        <time>2013-04-04T03:56:39Z</time>
      </trkpt>
      <trkpt lat="49.07925" lon="7.13482">
        <ele>210.19</ele>
        <time>2013-04-04T03:56:45Z</time>
      </trkpt>
      <trkpt lat="49.07933" lon="7.13452">
        <ele>211.63</ele>
        <time>2013-04-04T03:57:05Z</time>
      </trkpt>
      <trkpt lat="49.07959" lon="7.13418">
        <ele>214.51</ele>
        <time>2013-04-04T03:57:32Z</time>
      </trkpt>
      <trkpt lat="49.07973" lon="7.1339">
        <ele>216.91</ele>
        <time>2013-04-04T03:57:55Z</time>
      </trkpt>
      <trkpt lat="49.07976" lon="7.13378">
        <ele>217.88</ele>
        <time>2013-04-04T03:58:17Z</time>
      </trkpt>
      <trkpt lat="49.07992" lon="7.1335">
        <ele>219.8</ele>
        <time>2013-04-04T03:58:35Z</time>
      </trkpt>
      <trkpt lat="49.07998" lon="7.13345">
        <ele>221.24</ele>
        <time>2013-04-04T03:58:55Z</time>
      </trkpt>
      <trkpt lat="49.08027" lon="7.13325">
        <ele>221.24</ele>
        <time>2013-04-04T03:59:18Z</time>
      </trkpt>
      <trkpt lat="49.08061" lon="7.13307">
        <ele>221.24</ele>
        <time>2013-04-04T03:59:43Z</time>
      </trkpt>
      <trkpt lat="49.08099" lon="7.13288">
        <ele>222.2</ele>
        <time>2013-04-04T04:00:11Z</time>
      </trkpt>
      <trkpt lat="49.08132" lon="7.1327">
        <ele>223.16</ele>
        <time>2013-04-04T04:00:36Z</time>
      </trkpt>
      <trkpt lat="49.08172" lon="7.13255">
        <ele>221.72</ele>
        <time>2013-04-04T04:01:04Z</time>
      </trkpt>
      <trkpt lat="49.08198" lon="7.13243">
        <ele>221.24</ele>
        <time>2013-04-04T04:01:26Z</time>
      </trkpt>
      <trkpt lat="49.08242" lon="7.13221">
        <ele>221.24</ele>
        <time>2013-04-04T04:01:57Z</time>
      </trkpt>
      <trkpt lat="49.08284" lon="7.13202">
        <ele>222.2</ele>
        <time>2013-04-04T04:02:28Z</time>
      </trkpt>
      <trkpt lat="49.08323" lon="7.13182">
        <ele>222.2</ele>
        <time>2013-04-04T04:02:59Z</time>
      </trkpt>
      <trkpt lat="49.0834" lon="7.13172">
        <ele>222.68</ele>
        <time>2013-04-04T04:03:19Z</time>
      </trkpt>
      <trkpt lat="49.08378" lon="7.13151">
        <ele>222.68</ele>
        <time>2013-04-04T04:03:46Z</time>
      </trkpt>
      <trkpt lat="49.08414" lon="7.13124">
        <ele>223.16</ele>
        <time>2013-04-04T04:04:14Z</time>
      </trkpt>
      <trkpt lat="49.0845" lon="7.13091">
        <ele>225.09</ele>
        <time>2013-04-04T04:04:45Z</time>
      </trkpt>
      <trkpt lat="49.08454" lon="7.13087">
        <ele>225.09</ele>
        <time>2013-04-04T04:04:49Z</time>
      </trkpt>
      <trkpt lat="49.08483" lon="7.13049">
        <ele>228.45</ele>
        <time>2013-04-04T04:05:17Z</time>
      </trkpt>
      <trkpt lat="49.0851" lon="7.13008">
        <ele>229.89</ele>
        <time>2013-04-04T04:05:46Z</time>
      </trkpt>
      <trkpt lat="49.08517" lon="7.1298">
        <ele>230.37</ele>
        <time>2013-04-04T04:06:02Z</time>
      </trkpt>
      <trkpt lat="49.08492" lon="7.12956">
        <ele>233.74</ele>
        <time>2013-04-04T04:06:28Z</time>
      </trkpt>
      <trkpt lat="49.08471" lon="7.12944">
        <ele>234.7</ele>
        <time>2013-04-04T04:06:54Z</time>
      </trkpt>
      <trkpt lat="49.08438" lon="7.12922">
        <ele>237.1</ele>
        <time>2013-04-04T04:07:22Z</time>
      </trkpt>
      <trkpt lat="49.08397" lon="7.12899">
        <ele>239.02</ele>
        <time>2013-04-04T04:07:55Z</time>
      </trkpt>
      <trkpt lat="49.08362" lon="7.12877">
        <ele>240.47</ele>
        <time>2013-04-04T04:08:23Z</time>
      </trkpt>
      <trkpt lat="49.08325" lon="7.12854">
        <ele>242.39</ele>
        <time>2013-04-04T04:08:52Z</time>
      </trkpt>
      <trkpt lat="49.08315" lon="7.1285">
        <ele>242.39</ele>
        <time>2013-04-04T04:09:03Z</time>
      </trkpt>
      <trkpt lat="49.08306" lon="7.12846">
        <ele>242.87</ele>
        <time>2013-04-04T04:09:09Z</time>
      </trkpt>
      <trkpt lat="49.08262" lon="7.12825">
        <ele>244.31</ele>
        <time>2013-04-04T04:09:42Z</time>
      </trkpt>
      <trkpt lat="49.08226" lon="7.12815">
        <ele>245.27</ele>
        <time>2013-04-04T04:10:09Z</time>
      </trkpt>
      <trkpt lat="49.08204" lon="7.12826">
        <ele>246.72</ele>
        <time>2013-04-04T04:10:30Z</time>
      </trkpt>
      <trkpt lat="49.08186" lon="7.12885">
        <ele>245.27</ele>
        <time>2013-04-04T04:11:01Z</time>
      </trkpt>
      <trkpt lat="49.08168" lon="7.12944">
        <ele>243.83</ele>
        <time>2013-04-04T04:11:29Z</time>
      </trkpt>
      <trkpt lat="49.08149" lon="7.1299">
        <ele>242.87</ele>
        <time>2013-04-04T04:11:52Z</time>
      </trkpt>
      <trkpt lat="49.08131" lon="7.13027">
        <ele>243.35</ele>
        <time>2013-04-04T04:12:12Z</time>
      </trkpt>
      <trkpt lat="49.08129" lon="7.13029">
        <ele>243.35</ele>
        <time>2013-04-04T04:12:14Z</time>
      </trkpt>
      <trkpt lat="49.08128" lon="7.13031">
        <ele>243.35</ele>
        <time>2013-04-04T04:12:15Z</time>
      </trkpt>
      <trkpt lat="49.0812" lon="7.13044">
        <ele>243.35</ele>
        <time>2013-04-04T04:12:23Z</time>
      </trkpt>
      <trkpt lat="49.08118" lon="7.13044">
        <ele>243.83</ele>
        <time>2013-04-04T04:12:24Z</time>
      </trkpt>
      <trkpt lat="49.08117" lon="7.13044">
        <ele>243.35</ele>
        <time>2013-04-04T04:12:25Z</time>
      </trkpt>
      <trkpt lat="49.08116" lon="7.13045">
        <ele>243.35</ele>
        <time>2013-04-04T04:12:26Z</time>
      </trkpt>
      <trkpt lat="49.08114" lon="7.13046">
        <ele>243.35</ele>
        <time>2013-04-04T04:12:27Z</time>
      </trkpt>
      <trkpt lat="49.08113" lon="7.13047">
        <ele>243.35</ele>
        <time>2013-04-04T04:12:28Z</time>
      </trkpt>
      <trkpt lat="49.08085" lon="7.13078">
        <ele>243.35</ele>
        <time>2013-04-04T04:12:54Z</time>
      </trkpt>
      <trkpt lat="49.08053" lon="7.13077">
        <ele>246.23</ele>
        <time>2013-04-04T04:13:18Z</time>
      </trkpt>
      <trkpt lat="49.08018" lon="7.13098">
        <ele>246.72</ele>
        <time>2013-04-04T04:13:45Z</time>
      </trkpt>
      <trkpt lat="49.07981" lon="7.13125">
        <ele>245.27</ele>
        <time>2013-04-04T04:14:12Z</time>
      </trkpt>
      <trkpt lat="49.07951" lon="7.13151">
        <ele>243.83</ele>
        <time>2013-04-04T04:14:34Z</time>
      </trkpt>
      <trkpt lat="49.07917" lon="7.13179">
        <ele>241.43</ele>
        <time>2013-04-04T04:14:59Z</time>
      </trkpt>
      <trkpt lat="49.07881" lon="7.13188">
        <ele>239.99</ele>
        <time>2013-04-04T04:15:23Z</time>
      </trkpt>
      <trkpt lat="49.07848" lon="7.13154">
        <ele>241.91</ele>
        <time>2013-04-04T04:15:51Z</time>
      </trkpt>
      <trkpt lat="49.07834" lon="7.13158">
        <ele>242.39</ele>
        <time>2013-04-04T04:16:13Z</time>
      </trkpt>
      <trkpt lat="49.07811" lon="7.13164">
        <ele>242.39</ele>
        <time>2013-04-04T04:16:29Z</time>
      </trkpt>
      <trkpt lat="49.0781" lon="7.13165">
        <ele>242.87</ele>
        <time>2013-04-04T04:16:30Z</time>
      </trkpt>
      <trkpt lat="49.07809" lon="7.13166">
        <ele>242.87</ele>
        <time>2013-04-04T04:16:31Z</time>
      </trkpt>
      <trkpt lat="49.07779" lon="7.13182">
        <ele>243.83</ele>
        <time>2013-04-04T04:16:55Z</time>
      </trkpt>
      <trkpt lat="49.07758" lon="7.13195">
        <ele>242.87</ele>
        <time>2013-04-04T04:17:10Z</time>
      </trkpt>
      <trkpt lat="49.07756" lon="7.13195">
        <ele>242.87</ele>
        <time>2013-04-04T04:17:11Z</time>
      </trkpt>
      <trkpt lat="49.07716" lon="7.13208">
        <ele>241.91</ele>
        <time>2013-04-04T04:17:39Z</time>
      </trkpt>
      <trkpt lat="49.07667" lon="7.13218">
        <ele>241.43</ele>
        <time>2013-04-04T04:18:12Z</time>
      </trkpt>
      <trkpt lat="49.07643" lon="7.13245">
        <ele>239.99</ele>
        <time>2013-04-04T04:18:38Z</time>
      </trkpt>
      <trkpt lat="49.07646" lon="7.13277">
        <ele>238.54</ele>
        <time>2013-04-04T04:19:03Z</time>
      </trkpt>
      <trkpt lat="49.07646" lon="7.13345">
        <ele>235.66</ele>
        <time>2013-04-04T04:19:33Z</time>
      </trkpt>
      <trkpt lat="49.07649" lon="7.13393">
        <ele>232.78</ele>
        <time>2013-04-04T04:19:55Z</time>
      </trkpt>
      <trkpt lat="49.07636" lon="7.13451">
        <ele>229.89</ele>
        <time>2013-04-04T04:20:23Z</time>
      </trkpt>
      <trkpt lat="49.07603" lon="7.13464">
        <ele>227.97</ele>
        <time>2013-04-04T04:20:46Z</time>
      </trkpt>
      <trkpt lat="49.07572" lon="7.1348">
        <ele>226.05</ele>
        <time>2013-04-04T04:21:11Z</time>
      </trkpt>
      <trkpt lat="49.07573" lon="7.13485">
        <ele>226.53</ele>
        <time>2013-04-04T04:21:15Z</time>
      </trkpt>
      <trkpt lat="49.07573" lon="7.13487">
        <ele>226.05</ele>
        <time>2013-04-04T04:21:16Z</time>
      </trkpt>
      <trkpt lat="49.07592" lon="7.13523">
        <ele>225.57</ele>
        <time>2013-04-04T04:21:40Z</time>
      </trkpt>
      <trkpt lat="49.07603" lon="7.13522">
        <ele>224.61</ele>
        <time>2013-04-04T04:21:59Z</time>
      </trkpt>
      <trkpt lat="49.07628" lon="7.13523">
        <ele>223.16</ele>
        <time>2013-04-04T04:22:21Z</time>
      </trkpt>
      <trkpt lat="49.07658" lon="7.13535">
        <ele>219.8</ele>
        <time>2013-04-04T04:22:42Z</time>
      </trkpt>
      <trkpt lat="49.07665" lon="7.13585">
        <ele>216.91</ele>
        <time>2013-04-04T04:23:06Z</time>
      </trkpt>
      <trkpt lat="49.07664" lon="7.13613">
        <ele>214.99</ele>
        <time>2013-04-04T04:23:20Z</time>
      </trkpt>
      <trkpt lat="49.07662" lon="7.13614">
        <ele>214.99</ele>
        <time>2013-04-04T04:23:21Z</time>
      </trkpt>
      <trkpt lat="49.07661" lon="7.13615">
        <ele>215.47</ele>
        <time>2013-04-04T04:23:22Z</time>
      </trkpt>
      <trkpt lat="49.07659" lon="7.13615">
        <ele>214.99</ele>
        <time>2013-04-04T04:23:23Z</time>
      </trkpt>
      <trkpt lat="49.07657" lon="7.13615">
        <ele>214.99</ele>
        <time>2013-04-04T04:23:24Z</time>
      </trkpt>
      <trkpt lat="49.07617" lon="7.13601">
        <ele>216.43</ele>
        <time>2013-04-04T04:23:52Z</time>
      </trkpt>
      <trkpt lat="49.07587" lon="7.13582">
        <ele>216.91</ele>
        <time>2013-04-04T04:24:16Z</time>
      </trkpt>
      <trkpt lat="49.07555" lon="7.13561">
        <ele>217.88</ele>
        <time>2013-04-04T04:24:41Z</time>
      </trkpt>
      <trkpt lat="49.07521" lon="7.13541">
        <ele>219.8</ele>
        <time>2013-04-04T04:25:08Z</time>
      </trkpt>
      <trkpt lat="49.07498" lon="7.13546">
        <ele>223.16</ele>
        <time>2013-04-04T04:25:31Z</time>
      </trkpt>
      <trkpt lat="49.07494" lon="7.13548">
        <ele>222.68</ele>
        <time>2013-04-04T04:25:51Z</time>
      </trkpt>
      <trkpt lat="49.07493" lon="7.13547">
        <ele>224.12</ele>
        <time>2013-04-04T04:26:01Z</time>
      </trkpt>
      <trkpt lat="49.07503" lon="7.13542">
        <ele>223.64</ele>
        <time>2013-04-04T04:26:07Z</time>
      </trkpt>
    </trkseg>
  </trk>
  <trk>
    <name><![CDATA[Tracé actuel: 26 MARS 2013 07:15]]></name>
    <trkseg>
      <trkpt lat="49.07494" lon="7.13525">
        <ele>241.91</ele>
        <time>2013-03-26T05:15:41Z</time>
      </trkpt>
      <trkpt lat="49.07524" lon="7.13535">
        <ele>239.51</ele>
        <time>2013-03-26T05:16:06Z</time>
      </trkpt>
      <trkpt lat="49.07538" lon="7.13543">
        <ele>236.14</ele>
        <time>2013-03-26T05:16:17Z</time>
      </trkpt>
      <trkpt lat="49.07543" lon="7.13546">
        <ele>232.78</ele>
        <time>2013-03-26T05:16:21Z</time>
      </trkpt>
      <trkpt lat="49.07549" lon="7.13551">
        <ele>228.93</ele>
        <time>2013-03-26T05:16:27Z</time>
      </trkpt>
      <trkpt lat="49.0755" lon="7.13552">
        <ele>228.93</ele>
        <time>2013-03-26T05:16:28Z</time>
      </trkpt>
      <trkpt lat="49.07555" lon="7.13555">
        <ele>226.53</ele>
        <time>2013-03-26T05:16:32Z</time>
      </trkpt>
      <trkpt lat="49.0756" lon="7.1356">
        <ele>224.12</ele>
        <time>2013-03-26T05:16:37Z</time>
      </trkpt>
      <trkpt lat="49.07566" lon="7.13567">
        <ele>220.76</ele>
        <time>2013-03-26T05:16:45Z</time>
      </trkpt>
      <trkpt lat="49.07569" lon="7.13568">
        <ele>219.8</ele>
        <time>2013-03-26T05:16:47Z</time>
      </trkpt>
      <trkpt lat="49.07585" lon="7.13578">
        <ele>216.43</ele>
        <time>2013-03-26T05:16:56Z</time>
      </trkpt>
      <trkpt lat="49.07613" lon="7.13593">
        <ele>214.03</ele>
        <time>2013-03-26T05:17:14Z</time>
      </trkpt>
      <trkpt lat="49.07615" lon="7.13593">
        <ele>213.55</ele>
        <time>2013-03-26T05:17:28Z</time>
      </trkpt>
      <trkpt lat="49.0763" lon="7.13604">
        <ele>212.59</ele>
        <time>2013-03-26T05:17:49Z</time>
      </trkpt>
      <trkpt lat="49.07659" lon="7.13613">
        <ele>211.63</ele>
        <time>2013-03-26T05:18:10Z</time>
      </trkpt>
      <trkpt lat="49.07658" lon="7.13588">
        <ele>213.07</ele>
        <time>2013-03-26T05:18:34Z</time>
      </trkpt>
      <trkpt lat="49.07658" lon="7.13548">
        <ele>215.47</ele>
        <time>2013-03-26T05:18:58Z</time>
      </trkpt>
      <trkpt lat="49.07657" lon="7.13539">
        <ele>216.43</ele>
        <time>2013-03-26T05:19:12Z</time>
      </trkpt>
      <trkpt lat="49.07654" lon="7.13531">
        <ele>216.91</ele>
        <time>2013-03-26T05:19:18Z</time>
      </trkpt>
      <trkpt lat="49.07629" lon="7.13529">
        <ele>219.32</ele>
        <time>2013-03-26T05:19:43Z</time>
      </trkpt>
      <trkpt lat="49.07592" lon="7.13525">
        <ele>221.72</ele>
        <time>2013-03-26T05:20:11Z</time>
      </trkpt>
      <trkpt lat="49.07574" lon="7.13484">
        <ele>222.68</ele>
        <time>2013-03-26T05:20:37Z</time>
      </trkpt>
      <trkpt lat="49.07593" lon="7.13458">
        <ele>223.64</ele>
        <time>2013-03-26T05:20:59Z</time>
      </trkpt>
      <trkpt lat="49.07617" lon="7.13454">
        <ele>225.57</ele>
        <time>2013-03-26T05:21:21Z</time>
      </trkpt>
      <trkpt lat="49.07636" lon="7.13446">
        <ele>226.53</ele>
        <time>2013-03-26T05:21:42Z</time>
      </trkpt>
      <trkpt lat="49.07646" lon="7.13424">
        <ele>226.53</ele>
        <time>2013-03-26T05:22:07Z</time>
      </trkpt>
      <trkpt lat="49.07646" lon="7.13384">
        <ele>229.41</ele>
        <time>2013-03-26T05:22:28Z</time>
      </trkpt>
      <trkpt lat="49.07643" lon="7.13333">
        <ele>232.3</ele>
        <time>2013-03-26T05:22:54Z</time>
      </trkpt>
      <trkpt lat="49.07643" lon="7.13284">
        <ele>235.18</ele>
        <time>2013-03-26T05:23:19Z</time>
      </trkpt>
      <trkpt lat="49.07645" lon="7.13223">
        <ele>237.1</ele>
        <time>2013-03-26T05:23:49Z</time>
      </trkpt>
      <trkpt lat="49.07647" lon="7.13221">
        <ele>237.1</ele>
        <time>2013-03-26T05:23:51Z</time>
      </trkpt>
      <trkpt lat="49.07679" lon="7.13212">
        <ele>238.54</ele>
        <time>2013-03-26T05:24:16Z</time>
      </trkpt>
      <trkpt lat="49.07694" lon="7.1321">
        <ele>239.02</ele>
        <time>2013-03-26T05:24:30Z</time>
      </trkpt>
      <trkpt lat="49.07697" lon="7.13214">
        <ele>239.02</ele>
        <time>2013-03-26T05:24:48Z</time>
      </trkpt>
      <trkpt lat="49.07722" lon="7.13204">
        <ele>239.51</ele>
        <time>2013-03-26T05:25:08Z</time>
      </trkpt>
      <trkpt lat="49.07758" lon="7.13191">
        <ele>240.47</ele>
        <time>2013-03-26T05:25:35Z</time>
      </trkpt>
      <trkpt lat="49.07761" lon="7.13192">
        <ele>240.47</ele>
        <time>2013-03-26T05:25:54Z</time>
      </trkpt>
      <trkpt lat="49.07784" lon="7.1318">
        <ele>240.47</ele>
        <time>2013-03-26T05:26:14Z</time>
      </trkpt>
      <trkpt lat="49.07813" lon="7.13164">
        <ele>239.99</ele>
        <time>2013-03-26T05:26:36Z</time>
      </trkpt>
      <trkpt lat="49.07856" lon="7.13152">
        <ele>239.02</ele>
        <time>2013-03-26T05:27:08Z</time>
      </trkpt>
      <trkpt lat="49.07873" lon="7.13173">
        <ele>237.58</ele>
        <time>2013-03-26T05:27:31Z</time>
      </trkpt>
      <trkpt lat="49.07906" lon="7.13179">
        <ele>237.58</ele>
        <time>2013-03-26T05:27:57Z</time>
      </trkpt>
      <trkpt lat="49.07908" lon="7.13179">
        <ele>238.06</ele>
        <time>2013-03-26T05:28:07Z</time>
      </trkpt>
      <trkpt lat="49.07929" lon="7.13164">
        <ele>239.51</ele>
        <time>2013-03-26T05:28:28Z</time>
      </trkpt>
      <trkpt lat="49.07958" lon="7.13137">
        <ele>241.43</ele>
        <time>2013-03-26T05:28:53Z</time>
      </trkpt>
      <trkpt lat="49.07997" lon="7.13109">
        <ele>242.87</ele>
        <time>2013-03-26T05:29:25Z</time>
      </trkpt>
      <trkpt lat="49.08023" lon="7.13086">
        <ele>243.35</ele>
        <time>2013-03-26T05:29:53Z</time>
      </trkpt>
      <trkpt lat="49.08028" lon="7.13083">
        <ele>242.87</ele>
        <time>2013-03-26T05:30:10Z</time>
      </trkpt>
      <trkpt lat="49.08064" lon="7.13065">
        <ele>242.87</ele>
        <time>2013-03-26T05:30:37Z</time>
      </trkpt>
      <trkpt lat="49.08092" lon="7.13072">
        <ele>240.47</ele>
        <time>2013-03-26T05:31:00Z</time>
      </trkpt>
      <trkpt lat="49.08098" lon="7.13069">
        <ele>240.95</ele>
        <time>2013-03-26T05:31:04Z</time>
      </trkpt>
      <trkpt lat="49.08124" lon="7.13023">
        <ele>239.99</ele>
        <time>2013-03-26T05:31:33Z</time>
      </trkpt>
      <trkpt lat="49.08126" lon="7.13018">
        <ele>239.99</ele>
        <time>2013-03-26T05:31:36Z</time>
      </trkpt>
      <trkpt lat="49.08153" lon="7.12966">
        <ele>240.47</ele>
        <time>2013-03-26T05:32:07Z</time>
      </trkpt>
      <trkpt lat="49.08172" lon="7.12932">
        <ele>240.95</ele>
        <time>2013-03-26T05:32:29Z</time>
      </trkpt>
      <trkpt lat="49.08191" lon="7.12866">
        <ele>242.39</ele>
        <time>2013-03-26T05:33:03Z</time>
      </trkpt>
      <trkpt lat="49.08212" lon="7.12806">
        <ele>243.83</ele>
        <time>2013-03-26T05:33:35Z</time>
      </trkpt>
      <trkpt lat="49.08248" lon="7.12813">
        <ele>242.87</ele>
        <time>2013-03-26T05:33:58Z</time>
      </trkpt>
      <trkpt lat="49.08291" lon="7.12829">
        <ele>240.95</ele>
        <time>2013-03-26T05:34:28Z</time>
      </trkpt>
      <trkpt lat="49.0833" lon="7.12848">
        <ele>239.99</ele>
        <time>2013-03-26T05:34:56Z</time>
      </trkpt>
      <trkpt lat="49.08354" lon="7.1286">
        <ele>239.02</ele>
        <time>2013-03-26T05:35:14Z</time>
      </trkpt>
      <trkpt lat="49.08354" lon="7.12864">
        <ele>239.02</ele>
        <time>2013-03-26T05:35:16Z</time>
      </trkpt>
      <trkpt lat="49.08357" lon="7.12867">
        <ele>238.54</ele>
        <time>2013-03-26T05:35:19Z</time>
      </trkpt>
      <trkpt lat="49.08364" lon="7.1287">
        <ele>238.06</ele>
        <time>2013-03-26T05:35:24Z</time>
      </trkpt>
      <trkpt lat="49.08402" lon="7.12891">
        <ele>237.1</ele>
        <time>2013-03-26T05:35:51Z</time>
      </trkpt>
      <trkpt lat="49.08442" lon="7.12914">
        <ele>234.7</ele>
        <time>2013-03-26T05:36:19Z</time>
      </trkpt>
      <trkpt lat="49.08454" lon="7.12921">
        <ele>234.22</ele>
        <time>2013-03-26T05:36:27Z</time>
      </trkpt>
      <trkpt lat="49.08483" lon="7.12945">
        <ele>231.81</ele>
        <time>2013-03-26T05:36:51Z</time>
      </trkpt>
      <trkpt lat="49.08515" lon="7.12969">
        <ele>229.41</ele>
        <time>2013-03-26T05:37:16Z</time>
      </trkpt>
      <trkpt lat="49.08521" lon="7.12975">
        <ele>228.45</ele>
        <time>2013-03-26T05:37:21Z</time>
      </trkpt>
      <trkpt lat="49.08506" lon="7.13017">
        <ele>227.01</ele>
        <time>2013-03-26T05:37:42Z</time>
      </trkpt>
      <trkpt lat="49.08483" lon="7.13055">
        <ele>225.57</ele>
        <time>2013-03-26T05:38:06Z</time>
      </trkpt>
      <trkpt lat="49.08454" lon="7.1309">
        <ele>223.64</ele>
        <time>2013-03-26T05:38:30Z</time>
      </trkpt>
      <trkpt lat="49.08424" lon="7.13127">
        <ele>221.72</ele>
        <time>2013-03-26T05:38:55Z</time>
      </trkpt>
      <trkpt lat="49.08386" lon="7.13162">
        <ele>220.76</ele>
        <time>2013-03-26T05:39:22Z</time>
      </trkpt>
      <trkpt lat="49.08344" lon="7.13189">
        <ele>220.28</ele>
        <time>2013-03-26T05:39:52Z</time>
      </trkpt>
      <trkpt lat="49.08304" lon="7.13209">
        <ele>220.28</ele>
        <time>2013-03-26T05:40:20Z</time>
      </trkpt>
      <trkpt lat="49.08258" lon="7.13234">
        <ele>220.28</ele>
        <time>2013-03-26T05:40:52Z</time>
      </trkpt>
      <trkpt lat="49.08208" lon="7.13253">
        <ele>219.8</ele>
        <time>2013-03-26T05:41:26Z</time>
      </trkpt>
      <trkpt lat="49.08164" lon="7.13274">
        <ele>220.76</ele>
        <time>2013-03-26T05:41:57Z</time>
      </trkpt>
      <trkpt lat="49.08144" lon="7.13283">
        <ele>221.24</ele>
        <time>2013-03-26T05:42:14Z</time>
      </trkpt>
      <trkpt lat="49.08104" lon="7.13302">
        <ele>221.24</ele>
        <time>2013-03-26T05:42:42Z</time>
      </trkpt>
      <trkpt lat="49.08089" lon="7.13303">
        <ele>220.76</ele>
        <time>2013-03-26T05:43:00Z</time>
      </trkpt>
      <trkpt lat="49.08045" lon="7.13324">
        <ele>220.28</ele>
        <time>2013-03-26T05:43:30Z</time>
      </trkpt>
      <trkpt lat="49.08002" lon="7.13349">
        <ele>220.76</ele>
        <time>2013-03-26T05:44:00Z</time>
      </trkpt>
      <trkpt lat="49.07977" lon="7.1337">
        <ele>216.91</ele>
        <time>2013-03-26T05:44:23Z</time>
      </trkpt>
      <trkpt lat="49.07972" lon="7.13378">
        <ele>216.43</ele>
        <time>2013-03-26T05:44:28Z</time>
      </trkpt>
      <trkpt lat="49.07961" lon="7.13417">
        <ele>213.07</ele>
        <time>2013-03-26T05:44:46Z</time>
      </trkpt>
      <trkpt lat="49.07935" lon="7.13449">
        <ele>211.15</ele>
        <time>2013-03-26T05:45:10Z</time>
      </trkpt>
      <trkpt lat="49.07931" lon="7.13454">
        <ele>211.15</ele>
        <time>2013-03-26T05:45:14Z</time>
      </trkpt>
      <trkpt lat="49.0793" lon="7.13491">
        <ele>208.74</ele>
        <time>2013-03-26T05:45:36Z</time>
      </trkpt>
      <trkpt lat="49.0793" lon="7.13498">
        <ele>208.74</ele>
        <time>2013-03-26T05:45:40Z</time>
      </trkpt>
      <trkpt lat="49.0793" lon="7.13539">
        <ele>208.26</ele>
        <time>2013-03-26T05:46:01Z</time>
      </trkpt>
      <trkpt lat="49.07925" lon="7.13544">
        <ele>207.78</ele>
        <time>2013-03-26T05:46:05Z</time>
      </trkpt>
      <trkpt lat="49.07873" lon="7.13564">
        <ele>208.74</ele>
        <time>2013-03-26T05:46:35Z</time>
      </trkpt>
      <trkpt lat="49.07832" lon="7.1358">
        <ele>210.19</ele>
        <time>2013-03-26T05:47:02Z</time>
      </trkpt>
      <trkpt lat="49.07795" lon="7.13598">
        <ele>210.19</ele>
        <time>2013-03-26T05:47:29Z</time>
      </trkpt>
      <trkpt lat="49.07764" lon="7.13613">
        <ele>209.7</ele>
        <time>2013-03-26T05:47:54Z</time>
      </trkpt>
      <trkpt lat="49.07743" lon="7.13622">
        <ele>210.19</ele>
        <time>2013-03-26T05:48:16Z</time>
      </trkpt>
      <trkpt lat="49.07736" lon="7.13628">
        <ele>210.19</ele>
        <time>2013-03-26T05:48:22Z</time>
      </trkpt>
      <trkpt lat="49.07711" lon="7.13641">
        <ele>209.22</ele>
        <time>2013-03-26T05:48:42Z</time>
      </trkpt>
      <trkpt lat="49.07681" lon="7.13631">
        <ele>212.11</ele>
        <time>2013-03-26T05:49:09Z</time>
      </trkpt>
      <trkpt lat="49.07664" lon="7.13622">
        <ele>212.59</ele>
        <time>2013-03-26T05:49:26Z</time>
      </trkpt>
      <trkpt lat="49.07629" lon="7.13609">
        <ele>213.55</ele>
        <time>2013-03-26T05:49:52Z</time>
      </trkpt>
      <trkpt lat="49.07601" lon="7.13589">
        <ele>214.03</ele>
        <time>2013-03-26T05:50:15Z</time>
      </trkpt>
      <trkpt lat="49.07567" lon="7.13571">
        <ele>214.51</ele>
        <time>2013-03-26T05:50:38Z</time>
      </trkpt>
      <trkpt lat="49.07531" lon="7.13549">
        <ele>215.95</ele>
        <time>2013-03-26T05:51:03Z</time>
      </trkpt>
      <trkpt lat="49.07505" lon="7.13543">
        <ele>219.32</ele>
        <time>2013-03-26T05:51:22Z</time>
      </trkpt>
      <trkpt lat="49.07494" lon="7.1355">
        <ele>220.28</ele>
        <time>2013-03-26T05:51:46Z</time>
      </trkpt>
    </trkseg>
  </trk>
  <trk>
    <name><![CDATA[Tracé actuel: 27 MARS 2013 06:51]]></name>
    <trkseg>
      <trkpt lat="49.07501" lon="7.1355">
        <ele>241.91</ele>
        <time>2013-03-27T04:51:19Z</time>
      </trkpt>
      <trkpt lat="49.07503" lon="7.13546">
        <ele>241.91</ele>
        <time>2013-03-27T04:51:23Z</time>
      </trkpt>
      <trkpt lat="49.07519" lon="7.13539">
        <ele>238.06</ele>
        <time>2013-03-27T04:51:41Z</time>
      </trkpt>
      <trkpt lat="49.07524" lon="7.13541">
        <ele>234.7</ele>
        <time>2013-03-27T04:51:45Z</time>
      </trkpt>
      <trkpt lat="49.07528" lon="7.13544">
        <ele>231.33</ele>
        <time>2013-03-27T04:51:49Z</time>
      </trkpt>
      <trkpt lat="49.07529" lon="7.13545">
        <ele>231.33</ele>
        <time>2013-03-27T04:51:50Z</time>
      </trkpt>
      <trkpt lat="49.07534" lon="7.13547">
        <ele>228.45</ele>
        <time>2013-03-27T04:51:54Z</time>
      </trkpt>
      <trkpt lat="49.07538" lon="7.13551">
        <ele>226.05</ele>
        <time>2013-03-27T04:51:58Z</time>
      </trkpt>
      <trkpt lat="49.07546" lon="7.13553">
        <ele>224.61</ele>
        <time>2013-03-27T04:52:04Z</time>
      </trkpt>
      <trkpt lat="49.0755" lon="7.13554">
        <ele>223.16</ele>
        <time>2013-03-27T04:52:07Z</time>
      </trkpt>
      <trkpt lat="49.07564" lon="7.13561">
        <ele>219.8</ele>
        <time>2013-03-27T04:52:19Z</time>
      </trkpt>
      <trkpt lat="49.07581" lon="7.13575">
        <ele>216.91</ele>
        <time>2013-03-27T04:52:34Z</time>
      </trkpt>
      <trkpt lat="49.07602" lon="7.13588">
        <ele>214.03</ele>
        <time>2013-03-27T04:52:55Z</time>
      </trkpt>
      <trkpt lat="49.07619" lon="7.13597">
        <ele>214.03</ele>
        <time>2013-03-27T04:53:18Z</time>
      </trkpt>
      <trkpt lat="49.07642" lon="7.13612">
        <ele>213.07</ele>
        <time>2013-03-27T04:53:41Z</time>
      </trkpt>
      <trkpt lat="49.07677" lon="7.13624">
        <ele>211.15</ele>
        <time>2013-03-27T04:54:04Z</time>
      </trkpt>
      <trkpt lat="49.07689" lon="7.13622">
        <ele>211.15</ele>
        <time>2013-03-27T04:54:28Z</time>
      </trkpt>
      <trkpt lat="49.07689" lon="7.13622">
        <ele>211.15</ele>
        <time>2013-03-27T04:54:37Z</time>
      </trkpt>
      <trkpt lat="49.07702" lon="7.13629">
        <ele>210.67</ele>
        <time>2013-03-27T04:54:54Z</time>
      </trkpt>
      <trkpt lat="49.0772" lon="7.13625">
        <ele>210.19</ele>
        <time>2013-03-27T04:55:16Z</time>
      </trkpt>
      <trkpt lat="49.07754" lon="7.13611">
        <ele>210.19</ele>
        <time>2013-03-27T04:55:41Z</time>
      </trkpt>
      <trkpt lat="49.07757" lon="7.13604">
        <ele>210.19</ele>
        <time>2013-03-27T04:55:57Z</time>
      </trkpt>
      <trkpt lat="49.07781" lon="7.13591">
        <ele>210.19</ele>
        <time>2013-03-27T04:56:21Z</time>
      </trkpt>
      <trkpt lat="49.07805" lon="7.13583">
        <ele>210.67</ele>
        <time>2013-03-27T04:56:48Z</time>
      </trkpt>
      <trkpt lat="49.07809" lon="7.13581">
        <ele>210.67</ele>
        <time>2013-03-27T04:56:52Z</time>
      </trkpt>
      <trkpt lat="49.07833" lon="7.13571">
        <ele>210.67</ele>
        <time>2013-03-27T04:57:16Z</time>
      </trkpt>
      <trkpt lat="49.07856" lon="7.13565">
        <ele>210.67</ele>
        <time>2013-03-27T04:57:39Z</time>
      </trkpt>
      <trkpt lat="49.07867" lon="7.13563">
        <ele>210.19</ele>
        <time>2013-03-27T04:57:59Z</time>
      </trkpt>
      <trkpt lat="49.079" lon="7.13552">
        <ele>209.7</ele>
        <time>2013-03-27T04:58:25Z</time>
      </trkpt>
      <trkpt lat="49.07921" lon="7.13542">
        <ele>210.19</ele>
        <time>2013-03-27T04:58:41Z</time>
      </trkpt>
      <trkpt lat="49.07921" lon="7.13534">
        <ele>209.22</ele>
        <time>2013-03-27T04:58:47Z</time>
      </trkpt>
      <trkpt lat="49.07921" lon="7.13528">
        <ele>209.7</ele>
        <time>2013-03-27T04:58:50Z</time>
      </trkpt>
      <trkpt lat="49.07925" lon="7.13491">
        <ele>210.19</ele>
        <time>2013-03-27T04:59:11Z</time>
      </trkpt>
      <trkpt lat="49.07929" lon="7.13456">
        <ele>212.11</ele>
        <time>2013-03-27T04:59:28Z</time>
      </trkpt>
      <trkpt lat="49.07944" lon="7.13437">
        <ele>213.07</ele>
        <time>2013-03-27T04:59:48Z</time>
      </trkpt>
      <trkpt lat="49.07966" lon="7.13412">
        <ele>215.95</ele>
        <time>2013-03-27T05:00:10Z</time>
      </trkpt>
      <trkpt lat="49.07979" lon="7.13379">
        <ele>218.36</ele>
        <time>2013-03-27T05:00:33Z</time>
      </trkpt>
      <trkpt lat="49.07993" lon="7.13348">
        <ele>220.76</ele>
        <time>2013-03-27T05:00:58Z</time>
      </trkpt>
      <trkpt lat="49.08004" lon="7.13343">
        <ele>222.2</ele>
        <time>2013-03-27T05:01:15Z</time>
      </trkpt>
      <trkpt lat="49.0801" lon="7.13334">
        <ele>222.2</ele>
        <time>2013-03-27T05:01:23Z</time>
      </trkpt>
      <trkpt lat="49.08012" lon="7.13333">
        <ele>221.72</ele>
        <time>2013-03-27T05:01:27Z</time>
      </trkpt>
      <trkpt lat="49.08052" lon="7.13313">
        <ele>221.24</ele>
        <time>2013-03-27T05:01:57Z</time>
      </trkpt>
      <trkpt lat="49.0809" lon="7.13298">
        <ele>221.72</ele>
        <time>2013-03-27T05:02:25Z</time>
      </trkpt>
      <trkpt lat="49.08125" lon="7.13276">
        <ele>222.68</ele>
        <time>2013-03-27T05:02:55Z</time>
      </trkpt>
      <trkpt lat="49.08136" lon="7.13269">
        <ele>222.2</ele>
        <time>2013-03-27T05:03:19Z</time>
      </trkpt>
      <trkpt lat="49.08174" lon="7.13255">
        <ele>221.24</ele>
        <time>2013-03-27T05:03:45Z</time>
      </trkpt>
      <trkpt lat="49.08198" lon="7.13244">
        <ele>220.76</ele>
        <time>2013-03-27T05:04:11Z</time>
      </trkpt>
      <trkpt lat="49.08216" lon="7.13235">
        <ele>220.28</ele>
        <time>2013-03-27T05:04:30Z</time>
      </trkpt>
      <trkpt lat="49.08258" lon="7.13215">
        <ele>221.72</ele>
        <time>2013-03-27T05:05:01Z</time>
      </trkpt>
      <trkpt lat="49.08289" lon="7.13199">
        <ele>221.72</ele>
        <time>2013-03-27T05:05:25Z</time>
      </trkpt>
      <trkpt lat="49.0833" lon="7.13179">
        <ele>222.2</ele>
        <time>2013-03-27T05:05:55Z</time>
      </trkpt>
      <trkpt lat="49.08372" lon="7.13158">
        <ele>222.2</ele>
        <time>2013-03-27T05:06:25Z</time>
      </trkpt>
      <trkpt lat="49.08414" lon="7.13127">
        <ele>222.68</ele>
        <time>2013-03-27T05:06:58Z</time>
      </trkpt>
      <trkpt lat="49.08444" lon="7.13099">
        <ele>224.61</ele>
        <time>2013-03-27T05:07:25Z</time>
      </trkpt>
      <trkpt lat="49.08473" lon="7.13065">
        <ele>226.53</ele>
        <time>2013-03-27T05:07:53Z</time>
      </trkpt>
      <trkpt lat="49.08487" lon="7.13045">
        <ele>227.97</ele>
        <time>2013-03-27T05:08:07Z</time>
      </trkpt>
      <trkpt lat="49.08508" lon="7.1301">
        <ele>229.89</ele>
        <time>2013-03-27T05:08:33Z</time>
      </trkpt>
      <trkpt lat="49.08507" lon="7.12969">
        <ele>230.85</ele>
        <time>2013-03-27T05:08:59Z</time>
      </trkpt>
      <trkpt lat="49.08489" lon="7.12953">
        <ele>233.26</ele>
        <time>2013-03-27T05:09:26Z</time>
      </trkpt>
      <trkpt lat="49.08451" lon="7.1293">
        <ele>235.66</ele>
        <time>2013-03-27T05:09:55Z</time>
      </trkpt>
      <trkpt lat="49.08419" lon="7.12909">
        <ele>237.1</ele>
        <time>2013-03-27T05:10:22Z</time>
      </trkpt>
      <trkpt lat="49.08385" lon="7.12892">
        <ele>239.51</ele>
        <time>2013-03-27T05:10:48Z</time>
      </trkpt>
      <trkpt lat="49.0835" lon="7.1287">
        <ele>240.47</ele>
        <time>2013-03-27T05:11:15Z</time>
      </trkpt>
      <trkpt lat="49.08343" lon="7.12869">
        <ele>240.95</ele>
        <time>2013-03-27T05:11:31Z</time>
      </trkpt>
      <trkpt lat="49.08304" lon="7.12846">
        <ele>241.91</ele>
        <time>2013-03-27T05:12:02Z</time>
      </trkpt>
      <trkpt lat="49.08272" lon="7.12835">
        <ele>242.87</ele>
        <time>2013-03-27T05:12:27Z</time>
      </trkpt>
      <trkpt lat="49.08245" lon="7.12823">
        <ele>243.83</ele>
        <time>2013-03-27T05:12:50Z</time>
      </trkpt>
      <trkpt lat="49.08214" lon="7.1281">
        <ele>244.31</ele>
        <time>2013-03-27T05:13:13Z</time>
      </trkpt>
      <trkpt lat="49.08212" lon="7.12812">
        <ele>245.27</ele>
        <time>2013-03-27T05:13:15Z</time>
      </trkpt>
      <trkpt lat="49.08207" lon="7.12817">
        <ele>245.27</ele>
        <time>2013-03-27T05:13:20Z</time>
      </trkpt>
      <trkpt lat="49.08191" lon="7.12868">
        <ele>244.31</ele>
        <time>2013-03-27T05:13:48Z</time>
      </trkpt>
      <trkpt lat="49.08187" lon="7.12882">
        <ele>243.83</ele>
        <time>2013-03-27T05:13:55Z</time>
      </trkpt>
      <trkpt lat="49.08167" lon="7.12947">
        <ele>242.39</ele>
        <time>2013-03-27T05:14:27Z</time>
      </trkpt>
      <trkpt lat="49.08141" lon="7.13007">
        <ele>241.43</ele>
        <time>2013-03-27T05:14:57Z</time>
      </trkpt>
      <trkpt lat="49.08136" lon="7.13016">
        <ele>240.95</ele>
        <time>2013-03-27T05:15:07Z</time>
      </trkpt>
      <trkpt lat="49.08115" lon="7.13052">
        <ele>241.91</ele>
        <time>2013-03-27T05:15:32Z</time>
      </trkpt>
      <trkpt lat="49.08107" lon="7.13058">
        <ele>241.91</ele>
        <time>2013-03-27T05:15:43Z</time>
      </trkpt>
      <trkpt lat="49.08099" lon="7.13063">
        <ele>241.91</ele>
        <time>2013-03-27T05:15:50Z</time>
      </trkpt>
      <trkpt lat="49.08094" lon="7.13077">
        <ele>241.43</ele>
        <time>2013-03-27T05:15:58Z</time>
      </trkpt>
      <trkpt lat="49.08082" lon="7.13075">
        <ele>241.91</ele>
        <time>2013-03-27T05:16:06Z</time>
      </trkpt>
      <trkpt lat="49.0807" lon="7.13069">
        <ele>243.35</ele>
        <time>2013-03-27T05:16:15Z</time>
      </trkpt>
      <trkpt lat="49.08024" lon="7.13094">
        <ele>244.79</ele>
        <time>2013-03-27T05:16:50Z</time>
      </trkpt>
      <trkpt lat="49.07983" lon="7.13126">
        <ele>243.83</ele>
        <time>2013-03-27T05:17:21Z</time>
      </trkpt>
      <trkpt lat="49.07949" lon="7.13156">
        <ele>241.43</ele>
        <time>2013-03-27T05:17:49Z</time>
      </trkpt>
      <trkpt lat="49.07912" lon="7.13179">
        <ele>239.51</ele>
        <time>2013-03-27T05:18:16Z</time>
      </trkpt>
      <trkpt lat="49.0787" lon="7.13183">
        <ele>238.06</ele>
        <time>2013-03-27T05:18:45Z</time>
      </trkpt>
      <trkpt lat="49.07842" lon="7.13155">
        <ele>239.51</ele>
        <time>2013-03-27T05:19:10Z</time>
      </trkpt>
      <trkpt lat="49.07813" lon="7.13165">
        <ele>240.47</ele>
        <time>2013-03-27T05:19:33Z</time>
      </trkpt>
      <trkpt lat="49.07769" lon="7.13191">
        <ele>240.95</ele>
        <time>2013-03-27T05:20:08Z</time>
      </trkpt>
      <trkpt lat="49.07768" lon="7.13191">
        <ele>240.47</ele>
        <time>2013-03-27T05:20:11Z</time>
      </trkpt>
      <trkpt lat="49.0774" lon="7.13199">
        <ele>239.99</ele>
        <time>2013-03-27T05:20:42Z</time>
      </trkpt>
      <trkpt lat="49.07717" lon="7.13208">
        <ele>239.51</ele>
        <time>2013-03-27T05:21:06Z</time>
      </trkpt>
      <trkpt lat="49.07696" lon="7.13213">
        <ele>239.51</ele>
        <time>2013-03-27T05:21:23Z</time>
      </trkpt>
      <trkpt lat="49.07655" lon="7.13224">
        <ele>239.02</ele>
        <time>2013-03-27T05:21:53Z</time>
      </trkpt>
      <trkpt lat="49.07645" lon="7.13259">
        <ele>236.62</ele>
        <time>2013-03-27T05:22:17Z</time>
      </trkpt>
      <trkpt lat="49.07643" lon="7.13317">
        <ele>233.74</ele>
        <time>2013-03-27T05:22:44Z</time>
      </trkpt>
      <trkpt lat="49.07648" lon="7.13373">
        <ele>230.85</ele>
        <time>2013-03-27T05:23:11Z</time>
      </trkpt>
      <trkpt lat="49.0765" lon="7.1342">
        <ele>227.49</ele>
        <time>2013-03-27T05:23:34Z</time>
      </trkpt>
      <trkpt lat="49.07641" lon="7.13447">
        <ele>227.01</ele>
        <time>2013-03-27T05:23:47Z</time>
      </trkpt>
      <trkpt lat="49.07644" lon="7.13448">
        <ele>227.49</ele>
        <time>2013-03-27T05:23:59Z</time>
      </trkpt>
      <trkpt lat="49.07597" lon="7.13466">
        <ele>224.12</ele>
        <time>2013-03-27T05:24:31Z</time>
      </trkpt>
      <trkpt lat="49.07571" lon="7.13479">
        <ele>222.68</ele>
        <time>2013-03-27T05:24:51Z</time>
      </trkpt>
      <trkpt lat="49.07578" lon="7.13507">
        <ele>223.16</ele>
        <time>2013-03-27T05:25:10Z</time>
      </trkpt>
      <trkpt lat="49.07606" lon="7.13527">
        <ele>221.24</ele>
        <time>2013-03-27T05:25:34Z</time>
      </trkpt>
      <trkpt lat="49.07632" lon="7.13525">
        <ele>219.8</ele>
        <time>2013-03-27T05:25:52Z</time>
      </trkpt>
      <trkpt lat="49.07661" lon="7.13537">
        <ele>216.43</ele>
        <time>2013-03-27T05:26:16Z</time>
      </trkpt>
      <trkpt lat="49.07663" lon="7.13574">
        <ele>214.03</ele>
        <time>2013-03-27T05:26:36Z</time>
      </trkpt>
      <trkpt lat="49.07664" lon="7.13612">
        <ele>212.11</ele>
        <time>2013-03-27T05:26:54Z</time>
      </trkpt>
      <trkpt lat="49.0763" lon="7.13607">
        <ele>213.55</ele>
        <time>2013-03-27T05:27:18Z</time>
      </trkpt>
      <trkpt lat="49.07601" lon="7.13588">
        <ele>214.03</ele>
        <time>2013-03-27T05:27:40Z</time>
      </trkpt>
      <trkpt lat="49.07563" lon="7.13566">
        <ele>214.03</ele>
        <time>2013-03-27T05:28:09Z</time>
      </trkpt>
      <trkpt lat="49.07527" lon="7.13545">
        <ele>215.95</ele>
        <time>2013-03-27T05:28:37Z</time>
      </trkpt>
      <trkpt lat="49.07505" lon="7.13542">
        <ele>218.84</ele>
        <time>2013-03-27T05:28:56Z</time>
      </trkpt>
      <trkpt lat="49.07493" lon="7.13549">
        <ele>219.8</ele>
        <time>2013-03-27T05:29:22Z</time>
      </trkpt>
      <trkpt lat="49.07491" lon="7.13551">
        <ele>219.8</ele>
        <time>2013-03-27T05:29:37Z</time>
      </trkpt>
    </trkseg>
  </trk>
  <trk>
    <name><![CDATA[Tracé actuel: 28 MARS 2013 06:50]]></name>
    <trkseg>
      <trkpt lat="49.07492" lon="7.13538">
        <ele>242.39</ele>
        <time>2013-03-28T04:50:57Z</time>
      </trkpt>
      <trkpt lat="49.07497" lon="7.13546">
        <ele>242.87</ele>
        <time>2013-03-28T04:51:15Z</time>
      </trkpt>
      <trkpt lat="49.07516" lon="7.13532">
        <ele>239.51</ele>
        <time>2013-03-28T04:51:33Z</time>
      </trkpt>
      <trkpt lat="49.07516" lon="7.13532">
        <ele>236.62</ele>
        <time>2013-03-28T04:51:37Z</time>
      </trkpt>
      <trkpt lat="49.07515" lon="7.13532">
        <ele>233.26</ele>
        <time>2013-03-28T04:51:41Z</time>
      </trkpt>
      <trkpt lat="49.07517" lon="7.13532">
        <ele>230.37</ele>
        <time>2013-03-28T04:51:46Z</time>
      </trkpt>
      <trkpt lat="49.07519" lon="7.13533">
        <ele>228.93</ele>
        <time>2013-03-28T04:51:48Z</time>
      </trkpt>
      <trkpt lat="49.07522" lon="7.13534">
        <ele>227.01</ele>
        <time>2013-03-28T04:51:52Z</time>
      </trkpt>
      <trkpt lat="49.07532" lon="7.13541">
        <ele>223.16</ele>
        <time>2013-03-28T04:52:02Z</time>
      </trkpt>
      <trkpt lat="49.07541" lon="7.13548">
        <ele>219.8</ele>
        <time>2013-03-28T04:52:09Z</time>
      </trkpt>
      <trkpt lat="49.07564" lon="7.13561">
        <ele>216.91</ele>
        <time>2013-03-28T04:52:27Z</time>
      </trkpt>
      <trkpt lat="49.07588" lon="7.13578">
        <ele>214.99</ele>
        <time>2013-03-28T04:52:52Z</time>
      </trkpt>
      <trkpt lat="49.07617" lon="7.13595">
        <ele>214.51</ele>
        <time>2013-03-28T04:53:18Z</time>
      </trkpt>
      <trkpt lat="49.07643" lon="7.13611">
        <ele>213.55</ele>
        <time>2013-03-28T04:53:47Z</time>
      </trkpt>
      <trkpt lat="49.07677" lon="7.13622">
        <ele>212.59</ele>
        <time>2013-03-28T04:54:14Z</time>
      </trkpt>
      <trkpt lat="49.07716" lon="7.13629">
        <ele>211.15</ele>
        <time>2013-03-28T04:54:41Z</time>
      </trkpt>
      <trkpt lat="49.07715" lon="7.13625">
        <ele>210.67</ele>
        <time>2013-03-28T04:54:58Z</time>
      </trkpt>
      <trkpt lat="49.0772" lon="7.13626">
        <ele>210.67</ele>
        <time>2013-03-28T04:55:02Z</time>
      </trkpt>
      <trkpt lat="49.07753" lon="7.1361">
        <ele>211.15</ele>
        <time>2013-03-28T04:55:29Z</time>
      </trkpt>
      <trkpt lat="49.07783" lon="7.1359">
        <ele>211.15</ele>
        <time>2013-03-28T04:55:58Z</time>
      </trkpt>
      <trkpt lat="49.07784" lon="7.13588">
        <ele>211.15</ele>
        <time>2013-03-28T04:56:11Z</time>
      </trkpt>
      <trkpt lat="49.07788" lon="7.13587">
        <ele>210.67</ele>
        <time>2013-03-28T04:56:15Z</time>
      </trkpt>
      <trkpt lat="49.07819" lon="7.13573">
        <ele>211.15</ele>
        <time>2013-03-28T04:56:41Z</time>
      </trkpt>
      <trkpt lat="49.07842" lon="7.13563">
        <ele>210.19</ele>
        <time>2013-03-28T04:57:08Z</time>
      </trkpt>
      <trkpt lat="49.07874" lon="7.13553">
        <ele>209.7</ele>
        <time>2013-03-28T04:57:38Z</time>
      </trkpt>
      <trkpt lat="49.07901" lon="7.13546">
        <ele>209.22</ele>
        <time>2013-03-28T04:58:09Z</time>
      </trkpt>
      <trkpt lat="49.07904" lon="7.13546">
        <ele>209.22</ele>
        <time>2013-03-28T04:58:12Z</time>
      </trkpt>
      <trkpt lat="49.07923" lon="7.13533">
        <ele>209.22</ele>
        <time>2013-03-28T04:58:36Z</time>
      </trkpt>
      <trkpt lat="49.07925" lon="7.13524">
        <ele>209.7</ele>
        <time>2013-03-28T04:58:41Z</time>
      </trkpt>
      <trkpt lat="49.07926" lon="7.13479">
        <ele>210.19</ele>
        <time>2013-03-28T04:59:03Z</time>
      </trkpt>
      <trkpt lat="49.0793" lon="7.13453">
        <ele>211.63</ele>
        <time>2013-03-28T04:59:24Z</time>
      </trkpt>
      <trkpt lat="49.07931" lon="7.13452">
        <ele>211.15</ele>
        <time>2013-03-28T04:59:25Z</time>
      </trkpt>
      <trkpt lat="49.07957" lon="7.13431">
        <ele>214.03</ele>
        <time>2013-03-28T04:59:52Z</time>
      </trkpt>
      <trkpt lat="49.0797" lon="7.13408">
        <ele>215.47</ele>
        <time>2013-03-28T05:00:15Z</time>
      </trkpt>
      <trkpt lat="49.07978" lon="7.13394">
        <ele>216.91</ele>
        <time>2013-03-28T05:00:24Z</time>
      </trkpt>
      <trkpt lat="49.07984" lon="7.13364">
        <ele>218.84</ele>
        <time>2013-03-28T05:00:40Z</time>
      </trkpt>
      <trkpt lat="49.07991" lon="7.13359">
        <ele>219.32</ele>
        <time>2013-03-28T05:00:47Z</time>
      </trkpt>
      <trkpt lat="49.08016" lon="7.1333">
        <ele>220.76</ele>
        <time>2013-03-28T05:01:12Z</time>
      </trkpt>
      <trkpt lat="49.08057" lon="7.13309">
        <ele>220.28</ele>
        <time>2013-03-28T05:01:43Z</time>
      </trkpt>
      <trkpt lat="49.08093" lon="7.13294">
        <ele>221.72</ele>
        <time>2013-03-28T05:02:12Z</time>
      </trkpt>
      <trkpt lat="49.08127" lon="7.13277">
        <ele>222.2</ele>
        <time>2013-03-28T05:02:40Z</time>
      </trkpt>
      <trkpt lat="49.08137" lon="7.1327">
        <ele>222.2</ele>
        <time>2013-03-28T05:02:59Z</time>
      </trkpt>
      <trkpt lat="49.08176" lon="7.13254">
        <ele>220.76</ele>
        <time>2013-03-28T05:03:30Z</time>
      </trkpt>
      <trkpt lat="49.08211" lon="7.13236">
        <ele>220.28</ele>
        <time>2013-03-28T05:03:59Z</time>
      </trkpt>
      <trkpt lat="49.08233" lon="7.13222">
        <ele>220.76</ele>
        <time>2013-03-28T05:04:23Z</time>
      </trkpt>
      <trkpt lat="49.08265" lon="7.13209">
        <ele>221.72</ele>
        <time>2013-03-28T05:04:51Z</time>
      </trkpt>
      <trkpt lat="49.08303" lon="7.1319">
        <ele>221.24</ele>
        <time>2013-03-28T05:05:21Z</time>
      </trkpt>
      <trkpt lat="49.0834" lon="7.13174">
        <ele>222.2</ele>
        <time>2013-03-28T05:05:52Z</time>
      </trkpt>
      <trkpt lat="49.08361" lon="7.13165">
        <ele>222.2</ele>
        <time>2013-03-28T05:06:13Z</time>
      </trkpt>
      <trkpt lat="49.08401" lon="7.13137">
        <ele>222.68</ele>
        <time>2013-03-28T05:06:39Z</time>
      </trkpt>
      <trkpt lat="49.08437" lon="7.13107">
        <ele>224.12</ele>
        <time>2013-03-28T05:07:06Z</time>
      </trkpt>
      <trkpt lat="49.08473" lon="7.13065">
        <ele>226.53</ele>
        <time>2013-03-28T05:07:38Z</time>
      </trkpt>
      <trkpt lat="49.08497" lon="7.13029">
        <ele>228.93</ele>
        <time>2013-03-28T05:08:03Z</time>
      </trkpt>
      <trkpt lat="49.08511" lon="7.13005">
        <ele>229.41</ele>
        <time>2013-03-28T05:08:27Z</time>
      </trkpt>
      <trkpt lat="49.08514" lon="7.1297">
        <ele>230.85</ele>
        <time>2013-03-28T05:08:49Z</time>
      </trkpt>
      <trkpt lat="49.08483" lon="7.12947">
        <ele>233.74</ele>
        <time>2013-03-28T05:09:16Z</time>
      </trkpt>
      <trkpt lat="49.08446" lon="7.12926">
        <ele>236.62</ele>
        <time>2013-03-28T05:09:47Z</time>
      </trkpt>
      <trkpt lat="49.0841" lon="7.12905">
        <ele>238.06</ele>
        <time>2013-03-28T05:10:16Z</time>
      </trkpt>
      <trkpt lat="49.08373" lon="7.12881">
        <ele>239.99</ele>
        <time>2013-03-28T05:10:46Z</time>
      </trkpt>
      <trkpt lat="49.08369" lon="7.12879">
        <ele>239.99</ele>
        <time>2013-03-28T05:10:56Z</time>
      </trkpt>
      <trkpt lat="49.08364" lon="7.12877">
        <ele>240.47</ele>
        <time>2013-03-28T05:11:00Z</time>
      </trkpt>
      <trkpt lat="49.08356" lon="7.12872">
        <ele>240.47</ele>
        <time>2013-03-28T05:11:07Z</time>
      </trkpt>
      <trkpt lat="49.08335" lon="7.12859">
        <ele>240.95</ele>
        <time>2013-03-28T05:11:27Z</time>
      </trkpt>
      <trkpt lat="49.08304" lon="7.12843">
        <ele>242.39</ele>
        <time>2013-03-28T05:11:51Z</time>
      </trkpt>
      <trkpt lat="49.08263" lon="7.12829">
        <ele>243.83</ele>
        <time>2013-03-28T05:12:20Z</time>
      </trkpt>
      <trkpt lat="49.08224" lon="7.12814">
        <ele>244.79</ele>
        <time>2013-03-28T05:12:48Z</time>
      </trkpt>
      <trkpt lat="49.08208" lon="7.12817">
        <ele>246.23</ele>
        <time>2013-03-28T05:13:10Z</time>
      </trkpt>
      <trkpt lat="49.08199" lon="7.12845">
        <ele>245.27</ele>
        <time>2013-03-28T05:13:31Z</time>
      </trkpt>
      <trkpt lat="49.08181" lon="7.12907">
        <ele>242.87</ele>
        <time>2013-03-28T05:14:00Z</time>
      </trkpt>
      <trkpt lat="49.08161" lon="7.12964">
        <ele>242.39</ele>
        <time>2013-03-28T05:14:27Z</time>
      </trkpt>
      <trkpt lat="49.08133" lon="7.13008">
        <ele>241.91</ele>
        <time>2013-03-28T05:14:52Z</time>
      </trkpt>
      <trkpt lat="49.08106" lon="7.13052">
        <ele>242.39</ele>
        <time>2013-03-28T05:15:20Z</time>
      </trkpt>
      <trkpt lat="49.08076" lon="7.13074">
        <ele>242.39</ele>
        <time>2013-03-28T05:15:45Z</time>
      </trkpt>
      <trkpt lat="49.08042" lon="7.13083">
        <ele>244.79</ele>
        <time>2013-03-28T05:16:10Z</time>
      </trkpt>
      <trkpt lat="49.08004" lon="7.13106">
        <ele>245.27</ele>
        <time>2013-03-28T05:16:39Z</time>
      </trkpt>
      <trkpt lat="49.07969" lon="7.13138">
        <ele>243.35</ele>
        <time>2013-03-28T05:17:07Z</time>
      </trkpt>
      <trkpt lat="49.07931" lon="7.13163">
        <ele>240.95</ele>
        <time>2013-03-28T05:17:37Z</time>
      </trkpt>
      <trkpt lat="49.07911" lon="7.1318">
        <ele>239.51</ele>
        <time>2013-03-28T05:17:53Z</time>
      </trkpt>
      <trkpt lat="49.07875" lon="7.13186">
        <ele>238.06</ele>
        <time>2013-03-28T05:18:19Z</time>
      </trkpt>
      <trkpt lat="49.07852" lon="7.13157">
        <ele>239.99</ele>
        <time>2013-03-28T05:18:40Z</time>
      </trkpt>
      <trkpt lat="49.07827" lon="7.1316">
        <ele>240.47</ele>
        <time>2013-03-28T05:19:00Z</time>
      </trkpt>
      <trkpt lat="49.07789" lon="7.13175">
        <ele>241.43</ele>
        <time>2013-03-28T05:19:28Z</time>
      </trkpt>
      <trkpt lat="49.07752" lon="7.13194">
        <ele>240.95</ele>
        <time>2013-03-28T05:19:57Z</time>
      </trkpt>
      <trkpt lat="49.07717" lon="7.13207">
        <ele>240.47</ele>
        <time>2013-03-28T05:20:25Z</time>
      </trkpt>
      <trkpt lat="49.077" lon="7.13211">
        <ele>239.99</ele>
        <time>2013-03-28T05:20:44Z</time>
      </trkpt>
      <trkpt lat="49.07668" lon="7.13219">
        <ele>239.02</ele>
        <time>2013-03-28T05:21:08Z</time>
      </trkpt>
      <trkpt lat="49.07645" lon="7.13245">
        <ele>237.1</ele>
        <time>2013-03-28T05:21:36Z</time>
      </trkpt>
      <trkpt lat="49.07647" lon="7.13282">
        <ele>236.14</ele>
        <time>2013-03-28T05:22:02Z</time>
      </trkpt>
      <trkpt lat="49.07645" lon="7.13322">
        <ele>233.74</ele>
        <time>2013-03-28T05:22:23Z</time>
      </trkpt>
      <trkpt lat="49.0765" lon="7.13376">
        <ele>230.37</ele>
        <time>2013-03-28T05:22:49Z</time>
      </trkpt>
      <trkpt lat="49.07649" lon="7.13426">
        <ele>227.49</ele>
        <time>2013-03-28T05:23:12Z</time>
      </trkpt>
      <trkpt lat="49.07619" lon="7.1346">
        <ele>226.05</ele>
        <time>2013-03-28T05:23:38Z</time>
      </trkpt>
      <trkpt lat="49.07579" lon="7.13469">
        <ele>223.16</ele>
        <time>2013-03-28T05:24:05Z</time>
      </trkpt>
      <trkpt lat="49.07576" lon="7.13503">
        <ele>223.16</ele>
        <time>2013-03-28T05:24:26Z</time>
      </trkpt>
      <trkpt lat="49.0759" lon="7.1352">
        <ele>222.2</ele>
        <time>2013-03-28T05:24:45Z</time>
      </trkpt>
      <trkpt lat="49.07597" lon="7.13524">
        <ele>222.2</ele>
        <time>2013-03-28T05:24:50Z</time>
      </trkpt>
      <trkpt lat="49.07632" lon="7.13522">
        <ele>219.8</ele>
        <time>2013-03-28T05:25:18Z</time>
      </trkpt>
      <trkpt lat="49.07659" lon="7.13535">
        <ele>216.91</ele>
        <time>2013-03-28T05:25:42Z</time>
      </trkpt>
      <trkpt lat="49.07662" lon="7.1358">
        <ele>213.55</ele>
        <time>2013-03-28T05:26:05Z</time>
      </trkpt>
      <trkpt lat="49.07664" lon="7.13608">
        <ele>211.63</ele>
        <time>2013-03-28T05:26:20Z</time>
      </trkpt>
      <trkpt lat="49.07657" lon="7.13612">
        <ele>212.11</ele>
        <time>2013-03-28T05:26:25Z</time>
      </trkpt>
      <trkpt lat="49.07621" lon="7.13599">
        <ele>213.07</ele>
        <time>2013-03-28T05:26:52Z</time>
      </trkpt>
      <trkpt lat="49.0759" lon="7.1358">
        <ele>213.55</ele>
        <time>2013-03-28T05:27:17Z</time>
      </trkpt>
      <trkpt lat="49.07567" lon="7.13568">
        <ele>214.03</ele>
        <time>2013-03-28T05:27:39Z</time>
      </trkpt>
      <trkpt lat="49.07529" lon="7.13543">
        <ele>216.91</ele>
        <time>2013-03-28T05:28:09Z</time>
      </trkpt>
      <trkpt lat="49.07502" lon="7.13542">
        <ele>218.84</ele>
        <time>2013-03-28T05:28:32Z</time>
      </trkpt>
      <trkpt lat="49.07492" lon="7.13551">
        <ele>219.32</ele>
        <time>2013-03-28T05:28:55Z</time>
      </trkpt>
      <trkpt lat="49.07492" lon="7.1355">
        <ele>219.32</ele>
        <time>2013-03-28T05:29:00Z</time>
      </trkpt>
    </trkseg>
  </trk>
  <trk>
    <name><![CDATA[Tracé actuel: 29 MARS 2013 06:48]]></name>
    <trkseg>
      <trkpt lat="49.07537" lon="7.13549">
        <ele>227.01</ele>
        <time>2013-03-29T04:48:28Z</time>
      </trkpt>
      <trkpt lat="49.07564" lon="7.13561">
        <ele>226.05</ele>
        <time>2013-03-29T04:48:52Z</time>
      </trkpt>
      <trkpt lat="49.07578" lon="7.13569">
        <ele>226.05</ele>
        <time>2013-03-29T04:49:13Z</time>
      </trkpt>
      <trkpt lat="49.07593" lon="7.13579">
        <ele>222.2</ele>
        <time>2013-03-29T04:49:28Z</time>
      </trkpt>
      <trkpt lat="49.07601" lon="7.13585">
        <ele>218.36</ele>
        <time>2013-03-29T04:49:36Z</time>
      </trkpt>
      <trkpt lat="49.07602" lon="7.13586">
        <ele>218.36</ele>
        <time>2013-03-29T04:49:37Z</time>
      </trkpt>
      <trkpt lat="49.07612" lon="7.13591">
        <ele>215.47</ele>
        <time>2013-03-29T04:49:46Z</time>
      </trkpt>
      <trkpt lat="49.07628" lon="7.13599">
        <ele>212.11</ele>
        <time>2013-03-29T04:50:01Z</time>
      </trkpt>
      <trkpt lat="49.07666" lon="7.13617">
        <ele>209.7</ele>
        <time>2013-03-29T04:50:31Z</time>
      </trkpt>
      <trkpt lat="49.07701" lon="7.13627">
        <ele>208.26</ele>
        <time>2013-03-29T04:50:59Z</time>
      </trkpt>
      <trkpt lat="49.077" lon="7.13625">
        <ele>208.26</ele>
        <time>2013-03-29T04:51:14Z</time>
      </trkpt>
      <trkpt lat="49.07706" lon="7.13624">
        <ele>208.26</ele>
        <time>2013-03-29T04:51:19Z</time>
      </trkpt>
      <trkpt lat="49.07745" lon="7.13615">
        <ele>208.26</ele>
        <time>2013-03-29T04:51:48Z</time>
      </trkpt>
      <trkpt lat="49.07779" lon="7.13595">
        <ele>208.74</ele>
        <time>2013-03-29T04:52:13Z</time>
      </trkpt>
      <trkpt lat="49.07816" lon="7.13576">
        <ele>208.26</ele>
        <time>2013-03-29T04:52:44Z</time>
      </trkpt>
      <trkpt lat="49.07847" lon="7.13564">
        <ele>208.26</ele>
        <time>2013-03-29T04:53:13Z</time>
      </trkpt>
      <trkpt lat="49.07869" lon="7.13559">
        <ele>207.78</ele>
        <time>2013-03-29T04:53:39Z</time>
      </trkpt>
      <trkpt lat="49.07899" lon="7.13552">
        <ele>207.78</ele>
        <time>2013-03-29T04:54:05Z</time>
      </trkpt>
      <trkpt lat="49.07917" lon="7.13544">
        <ele>207.3</ele>
        <time>2013-03-29T04:54:29Z</time>
      </trkpt>
      <trkpt lat="49.07922" lon="7.13535">
        <ele>207.3</ele>
        <time>2013-03-29T04:54:36Z</time>
      </trkpt>
      <trkpt lat="49.07923" lon="7.13511">
        <ele>207.3</ele>
        <time>2013-03-29T04:54:49Z</time>
      </trkpt>
      <trkpt lat="49.07926" lon="7.13472">
        <ele>208.74</ele>
        <time>2013-03-29T04:55:11Z</time>
      </trkpt>
      <trkpt lat="49.0793" lon="7.13455">
        <ele>209.7</ele>
        <time>2013-03-29T04:55:21Z</time>
      </trkpt>
      <trkpt lat="49.07951" lon="7.13436">
        <ele>211.15</ele>
        <time>2013-03-29T04:55:44Z</time>
      </trkpt>
      <trkpt lat="49.07972" lon="7.13401">
        <ele>214.03</ele>
        <time>2013-03-29T04:56:11Z</time>
      </trkpt>
      <trkpt lat="49.0798" lon="7.13383">
        <ele>215.47</ele>
        <time>2013-03-29T04:56:32Z</time>
      </trkpt>
      <trkpt lat="49.07979" lon="7.13368">
        <ele>215.95</ele>
        <time>2013-03-29T04:56:57Z</time>
      </trkpt>
      <trkpt lat="49.07997" lon="7.13344">
        <ele>218.84</ele>
        <time>2013-03-29T04:57:17Z</time>
      </trkpt>
      <trkpt lat="49.08029" lon="7.13323">
        <ele>218.84</ele>
        <time>2013-03-29T04:57:44Z</time>
      </trkpt>
      <trkpt lat="49.08065" lon="7.1331">
        <ele>219.32</ele>
        <time>2013-03-29T04:58:11Z</time>
      </trkpt>
      <trkpt lat="49.081" lon="7.1329">
        <ele>219.8</ele>
        <time>2013-03-29T04:58:38Z</time>
      </trkpt>
      <trkpt lat="49.08126" lon="7.13275">
        <ele>220.28</ele>
        <time>2013-03-29T04:59:05Z</time>
      </trkpt>
      <trkpt lat="49.0815" lon="7.1326">
        <ele>219.32</ele>
        <time>2013-03-29T04:59:30Z</time>
      </trkpt>
      <trkpt lat="49.08184" lon="7.13248">
        <ele>218.84</ele>
        <time>2013-03-29T04:59:56Z</time>
      </trkpt>
      <trkpt lat="49.08224" lon="7.13229">
        <ele>218.36</ele>
        <time>2013-03-29T05:00:24Z</time>
      </trkpt>
      <trkpt lat="49.08271" lon="7.13209">
        <ele>219.32</ele>
        <time>2013-03-29T05:00:56Z</time>
      </trkpt>
      <trkpt lat="49.08315" lon="7.13183">
        <ele>219.32</ele>
        <time>2013-03-29T05:01:28Z</time>
      </trkpt>
      <trkpt lat="49.08352" lon="7.13169">
        <ele>219.32</ele>
        <time>2013-03-29T05:01:56Z</time>
      </trkpt>
      <trkpt lat="49.08392" lon="7.13142">
        <ele>219.8</ele>
        <time>2013-03-29T05:02:25Z</time>
      </trkpt>
      <trkpt lat="49.08428" lon="7.13115">
        <ele>220.76</ele>
        <time>2013-03-29T05:02:54Z</time>
      </trkpt>
      <trkpt lat="49.08443" lon="7.13097">
        <ele>221.72</ele>
        <time>2013-03-29T05:03:12Z</time>
      </trkpt>
      <trkpt lat="49.08467" lon="7.1307">
        <ele>224.12</ele>
        <time>2013-03-29T05:03:35Z</time>
      </trkpt>
      <trkpt lat="49.08493" lon="7.13034">
        <ele>226.05</ele>
        <time>2013-03-29T05:04:03Z</time>
      </trkpt>
      <trkpt lat="49.08518" lon="7.12993">
        <ele>227.49</ele>
        <time>2013-03-29T05:04:31Z</time>
      </trkpt>
      <trkpt lat="49.08519" lon="7.12975">
        <ele>227.49</ele>
        <time>2013-03-29T05:04:40Z</time>
      </trkpt>
      <trkpt lat="49.085" lon="7.12962">
        <ele>230.37</ele>
        <time>2013-03-29T05:05:01Z</time>
      </trkpt>
      <trkpt lat="49.08481" lon="7.12948">
        <ele>231.33</ele>
        <time>2013-03-29T05:05:20Z</time>
      </trkpt>
      <trkpt lat="49.08447" lon="7.12927">
        <ele>233.74</ele>
        <time>2013-03-29T05:05:48Z</time>
      </trkpt>
      <trkpt lat="49.08412" lon="7.12904">
        <ele>235.66</ele>
        <time>2013-03-29T05:06:17Z</time>
      </trkpt>
      <trkpt lat="49.08381" lon="7.12889">
        <ele>237.1</ele>
        <time>2013-03-29T05:06:43Z</time>
      </trkpt>
      <trkpt lat="49.08355" lon="7.12873">
        <ele>238.06</ele>
        <time>2013-03-29T05:07:08Z</time>
      </trkpt>
      <trkpt lat="49.08355" lon="7.12871">
        <ele>238.06</ele>
        <time>2013-03-29T05:07:25Z</time>
      </trkpt>
      <trkpt lat="49.08345" lon="7.12864">
        <ele>238.54</ele>
        <time>2013-03-29T05:07:33Z</time>
      </trkpt>
      <trkpt lat="49.08306" lon="7.12845">
        <ele>239.51</ele>
        <time>2013-03-29T05:08:03Z</time>
      </trkpt>
      <trkpt lat="49.08262" lon="7.12827">
        <ele>241.43</ele>
        <time>2013-03-29T05:08:35Z</time>
      </trkpt>
      <trkpt lat="49.08225" lon="7.12812">
        <ele>242.87</ele>
        <time>2013-03-29T05:09:03Z</time>
      </trkpt>
      <trkpt lat="49.08213" lon="7.12808">
        <ele>243.35</ele>
        <time>2013-03-29T05:09:12Z</time>
      </trkpt>
      <trkpt lat="49.08201" lon="7.1284">
        <ele>243.35</ele>
        <time>2013-03-29T05:09:37Z</time>
      </trkpt>
      <trkpt lat="49.08201" lon="7.12845">
        <ele>242.87</ele>
        <time>2013-03-29T05:09:42Z</time>
      </trkpt>
      <trkpt lat="49.08183" lon="7.12897">
        <ele>240.95</ele>
        <time>2013-03-29T05:10:10Z</time>
      </trkpt>
      <trkpt lat="49.08163" lon="7.12962">
        <ele>239.51</ele>
        <time>2013-03-29T05:10:40Z</time>
      </trkpt>
      <trkpt lat="49.08137" lon="7.1301">
        <ele>239.02</ele>
        <time>2013-03-29T05:11:06Z</time>
      </trkpt>
      <trkpt lat="49.08129" lon="7.13014">
        <ele>239.02</ele>
        <time>2013-03-29T05:11:12Z</time>
      </trkpt>
      <trkpt lat="49.08103" lon="7.13059">
        <ele>239.51</ele>
        <time>2013-03-29T05:11:41Z</time>
      </trkpt>
      <trkpt lat="49.08086" lon="7.13077">
        <ele>239.51</ele>
        <time>2013-03-29T05:11:55Z</time>
      </trkpt>
      <trkpt lat="49.08076" lon="7.13068">
        <ele>240.47</ele>
        <time>2013-03-29T05:12:04Z</time>
      </trkpt>
      <trkpt lat="49.08038" lon="7.13086">
        <ele>242.39</ele>
        <time>2013-03-29T05:12:33Z</time>
      </trkpt>
      <trkpt lat="49.08002" lon="7.13106">
        <ele>242.39</ele>
        <time>2013-03-29T05:12:59Z</time>
      </trkpt>
      <trkpt lat="49.07967" lon="7.1314">
        <ele>240.47</ele>
        <time>2013-03-29T05:13:27Z</time>
      </trkpt>
      <trkpt lat="49.07933" lon="7.13162">
        <ele>239.02</ele>
        <time>2013-03-29T05:13:52Z</time>
      </trkpt>
      <trkpt lat="49.07896" lon="7.13191">
        <ele>236.62</ele>
        <time>2013-03-29T05:14:20Z</time>
      </trkpt>
      <trkpt lat="49.07859" lon="7.13175">
        <ele>237.1</ele>
        <time>2013-03-29T05:14:46Z</time>
      </trkpt>
      <trkpt lat="49.07849" lon="7.13158">
        <ele>238.54</ele>
        <time>2013-03-29T05:15:09Z</time>
      </trkpt>
      <trkpt lat="49.07824" lon="7.13162">
        <ele>238.54</ele>
        <time>2013-03-29T05:15:28Z</time>
      </trkpt>
      <trkpt lat="49.07783" lon="7.1318">
        <ele>239.51</ele>
        <time>2013-03-29T05:15:59Z</time>
      </trkpt>
      <trkpt lat="49.07761" lon="7.13192">
        <ele>239.02</ele>
        <time>2013-03-29T05:16:28Z</time>
      </trkpt>
      <trkpt lat="49.07738" lon="7.132">
        <ele>238.54</ele>
        <time>2013-03-29T05:16:52Z</time>
      </trkpt>
      <trkpt lat="49.07724" lon="7.13205">
        <ele>238.54</ele>
        <time>2013-03-29T05:17:16Z</time>
      </trkpt>
      <trkpt lat="49.07686" lon="7.13213">
        <ele>237.58</ele>
        <time>2013-03-29T05:17:43Z</time>
      </trkpt>
      <trkpt lat="49.07645" lon="7.13226">
        <ele>236.14</ele>
        <time>2013-03-29T05:18:13Z</time>
      </trkpt>
      <trkpt lat="49.07644" lon="7.13233">
        <ele>235.66</ele>
        <time>2013-03-29T05:18:17Z</time>
      </trkpt>
      <trkpt lat="49.07644" lon="7.13285">
        <ele>233.74</ele>
        <time>2013-03-29T05:18:45Z</time>
      </trkpt>
      <trkpt lat="49.07644" lon="7.13308">
        <ele>232.78</ele>
        <time>2013-03-29T05:19:16Z</time>
      </trkpt>
      <trkpt lat="49.07646" lon="7.13357">
        <ele>229.41</ele>
        <time>2013-03-29T05:19:40Z</time>
      </trkpt>
      <trkpt lat="49.07649" lon="7.13391">
        <ele>227.49</ele>
        <time>2013-03-29T05:20:03Z</time>
      </trkpt>
      <trkpt lat="49.07649" lon="7.13431">
        <ele>225.09</ele>
        <time>2013-03-29T05:20:25Z</time>
      </trkpt>
      <trkpt lat="49.07614" lon="7.13461">
        <ele>223.64</ele>
        <time>2013-03-29T05:20:53Z</time>
      </trkpt>
      <trkpt lat="49.07585" lon="7.13468">
        <ele>221.72</ele>
        <time>2013-03-29T05:21:18Z</time>
      </trkpt>
      <trkpt lat="49.07577" lon="7.13504">
        <ele>220.76</ele>
        <time>2013-03-29T05:21:44Z</time>
      </trkpt>
      <trkpt lat="49.07589" lon="7.13518">
        <ele>219.8</ele>
        <time>2013-03-29T05:21:59Z</time>
      </trkpt>
      <trkpt lat="49.07623" lon="7.13523">
        <ele>217.88</ele>
        <time>2013-03-29T05:22:26Z</time>
      </trkpt>
      <trkpt lat="49.07659" lon="7.13532">
        <ele>214.99</ele>
        <time>2013-03-29T05:22:52Z</time>
      </trkpt>
      <trkpt lat="49.07662" lon="7.13565">
        <ele>212.59</ele>
        <time>2013-03-29T05:23:10Z</time>
      </trkpt>
      <trkpt lat="49.07664" lon="7.1359">
        <ele>211.15</ele>
        <time>2013-03-29T05:23:25Z</time>
      </trkpt>
      <trkpt lat="49.07664" lon="7.1361">
        <ele>209.7</ele>
        <time>2013-03-29T05:23:34Z</time>
      </trkpt>
      <trkpt lat="49.07632" lon="7.13605">
        <ele>210.67</ele>
        <time>2013-03-29T05:23:57Z</time>
      </trkpt>
      <trkpt lat="49.07593" lon="7.13581">
        <ele>211.63</ele>
        <time>2013-03-29T05:24:27Z</time>
      </trkpt>
      <trkpt lat="49.07553" lon="7.13561">
        <ele>212.59</ele>
        <time>2013-03-29T05:24:56Z</time>
      </trkpt>
      <trkpt lat="49.07521" lon="7.13538">
        <ele>214.51</ele>
        <time>2013-03-29T05:25:23Z</time>
      </trkpt>
      <trkpt lat="49.07494" lon="7.1355">
        <ele>216.91</ele>
        <time>2013-03-29T05:25:50Z</time>
      </trkpt>
      <trkpt lat="49.07491" lon="7.13549">
        <ele>216.91</ele>
        <time>2013-03-29T05:26:07Z</time>
      </trkpt>
    </trkseg>
  </trk>
  <trk>
    <name><![CDATA[Tracé actuel: 30 MARS 2013 06:51]]></name>
    <trkseg>
      <trkpt lat="49.07496" lon="7.13536">
        <ele>277.48</ele>
        <time>2013-03-30T04:51:01Z</time>
      </trkpt>
      <trkpt lat="49.07518" lon="7.13533">
        <ele>275.56</ele>
        <time>2013-03-30T04:51:25Z</time>
      </trkpt>
      <trkpt lat="49.07533" lon="7.13544">
        <ele>270.75</ele>
        <time>2013-03-30T04:51:37Z</time>
      </trkpt>
      <trkpt lat="49.07534" lon="7.13544">
        <ele>270.27</ele>
        <time>2013-03-30T04:51:38Z</time>
      </trkpt>
      <trkpt lat="49.07537" lon="7.13545">
        <ele>266.42</ele>
        <time>2013-03-30T04:51:40Z</time>
      </trkpt>
      <trkpt lat="49.07539" lon="7.13547">
        <ele>262.58</ele>
        <time>2013-03-30T04:51:42Z</time>
      </trkpt>
      <trkpt lat="49.07542" lon="7.13548">
        <ele>259.69</ele>
        <time>2013-03-30T04:51:44Z</time>
      </trkpt>
      <trkpt lat="49.07544" lon="7.1355">
        <ele>255.85</ele>
        <time>2013-03-30T04:51:46Z</time>
      </trkpt>
      <trkpt lat="49.07548" lon="7.13551">
        <ele>252.48</ele>
        <time>2013-03-30T04:51:48Z</time>
      </trkpt>
      <trkpt lat="49.07551" lon="7.13552">
        <ele>249.6</ele>
        <time>2013-03-30T04:51:50Z</time>
      </trkpt>
      <trkpt lat="49.07555" lon="7.13554">
        <ele>247.2</ele>
        <time>2013-03-30T04:51:53Z</time>
      </trkpt>
      <trkpt lat="49.07557" lon="7.13555">
        <ele>243.83</ele>
        <time>2013-03-30T04:51:55Z</time>
      </trkpt>
      <trkpt lat="49.07561" lon="7.13558">
        <ele>239.99</ele>
        <time>2013-03-30T04:51:58Z</time>
      </trkpt>
      <trkpt lat="49.07565" lon="7.13561">
        <ele>236.62</ele>
        <time>2013-03-30T04:52:02Z</time>
      </trkpt>
      <trkpt lat="49.07566" lon="7.13562">
        <ele>236.14</ele>
        <time>2013-03-30T04:52:03Z</time>
      </trkpt>
      <trkpt lat="49.07569" lon="7.13565">
        <ele>232.78</ele>
        <time>2013-03-30T04:52:06Z</time>
      </trkpt>
      <trkpt lat="49.07574" lon="7.1357">
        <ele>228.93</ele>
        <time>2013-03-30T04:52:11Z</time>
      </trkpt>
      <trkpt lat="49.07575" lon="7.1357">
        <ele>228.93</ele>
        <time>2013-03-30T04:52:12Z</time>
      </trkpt>
      <trkpt lat="49.0758" lon="7.13574">
        <ele>225.57</ele>
        <time>2013-03-30T04:52:17Z</time>
      </trkpt>
      <trkpt lat="49.0759" lon="7.13581">
        <ele>222.2</ele>
        <time>2013-03-30T04:52:25Z</time>
      </trkpt>
      <trkpt lat="49.07595" lon="7.13582">
        <ele>220.76</ele>
        <time>2013-03-30T04:52:29Z</time>
      </trkpt>
      <trkpt lat="49.07608" lon="7.13588">
        <ele>217.4</ele>
        <time>2013-03-30T04:52:38Z</time>
      </trkpt>
      <trkpt lat="49.07628" lon="7.136">
        <ele>213.55</ele>
        <time>2013-03-30T04:52:53Z</time>
      </trkpt>
      <trkpt lat="49.07662" lon="7.13616">
        <ele>211.63</ele>
        <time>2013-03-30T04:53:16Z</time>
      </trkpt>
      <trkpt lat="49.0769" lon="7.13619">
        <ele>210.19</ele>
        <time>2013-03-30T04:53:35Z</time>
      </trkpt>
      <trkpt lat="49.07729" lon="7.13621">
        <ele>209.22</ele>
        <time>2013-03-30T04:54:00Z</time>
      </trkpt>
      <trkpt lat="49.07738" lon="7.13622">
        <ele>209.7</ele>
        <time>2013-03-30T04:54:19Z</time>
      </trkpt>
      <trkpt lat="49.07741" lon="7.13621">
        <ele>209.22</ele>
        <time>2013-03-30T04:54:24Z</time>
      </trkpt>
      <trkpt lat="49.0775" lon="7.13614">
        <ele>209.22</ele>
        <time>2013-03-30T04:54:32Z</time>
      </trkpt>
      <trkpt lat="49.07785" lon="7.13584">
        <ele>209.22</ele>
        <time>2013-03-30T04:55:00Z</time>
      </trkpt>
      <trkpt lat="49.07812" lon="7.13576">
        <ele>210.19</ele>
        <time>2013-03-30T04:55:25Z</time>
      </trkpt>
      <trkpt lat="49.07809" lon="7.13577">
        <ele>209.7</ele>
        <time>2013-03-30T04:55:45Z</time>
      </trkpt>
      <trkpt lat="49.07844" lon="7.13563">
        <ele>209.7</ele>
        <time>2013-03-30T04:56:12Z</time>
      </trkpt>
      <trkpt lat="49.07861" lon="7.13561">
        <ele>209.7</ele>
        <time>2013-03-30T04:56:36Z</time>
      </trkpt>
      <trkpt lat="49.07897" lon="7.13547">
        <ele>208.74</ele>
        <time>2013-03-30T04:57:02Z</time>
      </trkpt>
      <trkpt lat="49.07923" lon="7.13526">
        <ele>208.74</ele>
        <time>2013-03-30T04:57:25Z</time>
      </trkpt>
      <trkpt lat="49.07924" lon="7.1352">
        <ele>208.74</ele>
        <time>2013-03-30T04:57:30Z</time>
      </trkpt>
      <trkpt lat="49.07927" lon="7.13496">
        <ele>209.7</ele>
        <time>2013-03-30T04:57:52Z</time>
      </trkpt>
      <trkpt lat="49.07926" lon="7.13494">
        <ele>209.7</ele>
        <time>2013-03-30T04:57:57Z</time>
      </trkpt>
      <trkpt lat="49.07926" lon="7.13485">
        <ele>209.22</ele>
        <time>2013-03-30T04:58:02Z</time>
      </trkpt>
      <trkpt lat="49.0794" lon="7.13443">
        <ele>211.63</ele>
        <time>2013-03-30T04:58:27Z</time>
      </trkpt>
      <trkpt lat="49.07963" lon="7.13414">
        <ele>214.51</ele>
        <time>2013-03-30T04:58:51Z</time>
      </trkpt>
      <trkpt lat="49.0797" lon="7.134">
        <ele>215.47</ele>
        <time>2013-03-30T04:59:00Z</time>
      </trkpt>
      <trkpt lat="49.07974" lon="7.13392">
        <ele>215.95</ele>
        <time>2013-03-30T04:59:05Z</time>
      </trkpt>
      <trkpt lat="49.07985" lon="7.13366">
        <ele>217.88</ele>
        <time>2013-03-30T04:59:22Z</time>
      </trkpt>
      <trkpt lat="49.07999" lon="7.13346">
        <ele>220.28</ele>
        <time>2013-03-30T04:59:46Z</time>
      </trkpt>
      <trkpt lat="49.08" lon="7.13344">
        <ele>220.76</ele>
        <time>2013-03-30T04:59:52Z</time>
      </trkpt>
      <trkpt lat="49.08032" lon="7.13319">
        <ele>220.76</ele>
        <time>2013-03-30T05:00:20Z</time>
      </trkpt>
      <trkpt lat="49.08044" lon="7.13313">
        <ele>220.28</ele>
        <time>2013-03-30T05:00:32Z</time>
      </trkpt>
      <trkpt lat="49.08076" lon="7.13302">
        <ele>220.28</ele>
        <time>2013-03-30T05:00:56Z</time>
      </trkpt>
      <trkpt lat="49.08116" lon="7.13278">
        <ele>221.72</ele>
        <time>2013-03-30T05:01:24Z</time>
      </trkpt>
      <trkpt lat="49.08146" lon="7.13261">
        <ele>221.72</ele>
        <time>2013-03-30T05:01:49Z</time>
      </trkpt>
      <trkpt lat="49.0818" lon="7.13249">
        <ele>220.76</ele>
        <time>2013-03-30T05:02:14Z</time>
      </trkpt>
      <trkpt lat="49.08213" lon="7.13234">
        <ele>219.8</ele>
        <time>2013-03-30T05:02:38Z</time>
      </trkpt>
      <trkpt lat="49.08243" lon="7.13218">
        <ele>220.28</ele>
        <time>2013-03-30T05:03:01Z</time>
      </trkpt>
      <trkpt lat="49.08265" lon="7.1321">
        <ele>220.76</ele>
        <time>2013-03-30T05:03:26Z</time>
      </trkpt>
      <trkpt lat="49.08302" lon="7.13193">
        <ele>221.24</ele>
        <time>2013-03-30T05:03:54Z</time>
      </trkpt>
      <trkpt lat="49.08343" lon="7.13171">
        <ele>221.24</ele>
        <time>2013-03-30T05:04:25Z</time>
      </trkpt>
      <trkpt lat="49.08371" lon="7.13154">
        <ele>221.24</ele>
        <time>2013-03-30T05:04:47Z</time>
      </trkpt>
      <trkpt lat="49.08412" lon="7.13123">
        <ele>221.72</ele>
        <time>2013-03-30T05:05:19Z</time>
      </trkpt>
      <trkpt lat="49.08452" lon="7.13087">
        <ele>224.12</ele>
        <time>2013-03-30T05:05:51Z</time>
      </trkpt>
      <trkpt lat="49.08484" lon="7.13049">
        <ele>226.53</ele>
        <time>2013-03-30T05:06:22Z</time>
      </trkpt>
      <trkpt lat="49.08502" lon="7.13021">
        <ele>228.45</ele>
        <time>2013-03-30T05:06:49Z</time>
      </trkpt>
      <trkpt lat="49.08514" lon="7.12973">
        <ele>229.41</ele>
        <time>2013-03-30T05:07:17Z</time>
      </trkpt>
      <trkpt lat="49.08491" lon="7.12956">
        <ele>231.81</ele>
        <time>2013-03-30T05:07:40Z</time>
      </trkpt>
      <trkpt lat="49.08455" lon="7.12934">
        <ele>234.22</ele>
        <time>2013-03-30T05:08:11Z</time>
      </trkpt>
      <trkpt lat="49.08416" lon="7.12911">
        <ele>236.14</ele>
        <time>2013-03-30T05:08:43Z</time>
      </trkpt>
      <trkpt lat="49.08379" lon="7.12891">
        <ele>238.06</ele>
        <time>2013-03-30T05:09:12Z</time>
      </trkpt>
      <trkpt lat="49.0834" lon="7.12865">
        <ele>239.51</ele>
        <time>2013-03-30T05:09:43Z</time>
      </trkpt>
      <trkpt lat="49.08294" lon="7.12841">
        <ele>240.95</ele>
        <time>2013-03-30T05:10:17Z</time>
      </trkpt>
      <trkpt lat="49.08251" lon="7.12822">
        <ele>242.87</ele>
        <time>2013-03-30T05:10:49Z</time>
      </trkpt>
      <trkpt lat="49.08231" lon="7.12818">
        <ele>243.35</ele>
        <time>2013-03-30T05:11:03Z</time>
      </trkpt>
      <trkpt lat="49.08225" lon="7.12814">
        <ele>243.83</ele>
        <time>2013-03-30T05:11:08Z</time>
      </trkpt>
      <trkpt lat="49.08204" lon="7.12831">
        <ele>245.75</ele>
        <time>2013-03-30T05:11:32Z</time>
      </trkpt>
      <trkpt lat="49.082" lon="7.12851">
        <ele>244.31</ele>
        <time>2013-03-30T05:11:51Z</time>
      </trkpt>
      <trkpt lat="49.0818" lon="7.12909">
        <ele>242.87</ele>
        <time>2013-03-30T05:12:18Z</time>
      </trkpt>
      <trkpt lat="49.08161" lon="7.12971">
        <ele>241.43</ele>
        <time>2013-03-30T05:12:45Z</time>
      </trkpt>
      <trkpt lat="49.08142" lon="7.13006">
        <ele>241.43</ele>
        <time>2013-03-30T05:13:09Z</time>
      </trkpt>
      <trkpt lat="49.0812" lon="7.13042">
        <ele>241.43</ele>
        <time>2013-03-30T05:13:30Z</time>
      </trkpt>
      <trkpt lat="49.08093" lon="7.13071">
        <ele>241.91</ele>
        <time>2013-03-30T05:13:55Z</time>
      </trkpt>
      <trkpt lat="49.08091" lon="7.13074">
        <ele>242.39</ele>
        <time>2013-03-30T05:13:57Z</time>
      </trkpt>
      <trkpt lat="49.08084" lon="7.13071">
        <ele>242.39</ele>
        <time>2013-03-30T05:14:02Z</time>
      </trkpt>
      <trkpt lat="49.08075" lon="7.13067">
        <ele>243.35</ele>
        <time>2013-03-30T05:14:08Z</time>
      </trkpt>
      <trkpt lat="49.08034" lon="7.13088">
        <ele>244.79</ele>
        <time>2013-03-30T05:14:40Z</time>
      </trkpt>
      <trkpt lat="49.07999" lon="7.1311">
        <ele>244.31</ele>
        <time>2013-03-30T05:15:07Z</time>
      </trkpt>
      <trkpt lat="49.07956" lon="7.13146">
        <ele>242.39</ele>
        <time>2013-03-30T05:15:40Z</time>
      </trkpt>
      <trkpt lat="49.07922" lon="7.1317">
        <ele>240.47</ele>
        <time>2013-03-30T05:16:05Z</time>
      </trkpt>
      <trkpt lat="49.07884" lon="7.1319">
        <ele>238.06</ele>
        <time>2013-03-30T05:16:32Z</time>
      </trkpt>
      <trkpt lat="49.0785" lon="7.13156">
        <ele>239.51</ele>
        <time>2013-03-30T05:17:00Z</time>
      </trkpt>
      <trkpt lat="49.07818" lon="7.13165">
        <ele>240.47</ele>
        <time>2013-03-30T05:17:25Z</time>
      </trkpt>
      <trkpt lat="49.07779" lon="7.13182">
        <ele>240.95</ele>
        <time>2013-03-30T05:17:54Z</time>
      </trkpt>
      <trkpt lat="49.07762" lon="7.13194">
        <ele>240.47</ele>
        <time>2013-03-30T05:18:08Z</time>
      </trkpt>
      <trkpt lat="49.07756" lon="7.13195">
        <ele>240.47</ele>
        <time>2013-03-30T05:18:13Z</time>
      </trkpt>
      <trkpt lat="49.07733" lon="7.13203">
        <ele>240.47</ele>
        <time>2013-03-30T05:18:36Z</time>
      </trkpt>
      <trkpt lat="49.07711" lon="7.13211">
        <ele>239.99</ele>
        <time>2013-03-30T05:18:56Z</time>
      </trkpt>
      <trkpt lat="49.07678" lon="7.13215">
        <ele>239.02</ele>
        <time>2013-03-30T05:19:20Z</time>
      </trkpt>
      <trkpt lat="49.07645" lon="7.13223">
        <ele>238.06</ele>
        <time>2013-03-30T05:19:44Z</time>
      </trkpt>
      <trkpt lat="49.07643" lon="7.13284">
        <ele>236.14</ele>
        <time>2013-03-30T05:20:14Z</time>
      </trkpt>
      <trkpt lat="49.07645" lon="7.13319">
        <ele>234.22</ele>
        <time>2013-03-30T05:20:44Z</time>
      </trkpt>
      <trkpt lat="49.07647" lon="7.13371">
        <ele>230.85</ele>
        <time>2013-03-30T05:21:09Z</time>
      </trkpt>
      <trkpt lat="49.07649" lon="7.1341">
        <ele>228.45</ele>
        <time>2013-03-30T05:21:28Z</time>
      </trkpt>
      <trkpt lat="49.07648" lon="7.13421">
        <ele>227.49</ele>
        <time>2013-03-30T05:21:33Z</time>
      </trkpt>
      <trkpt lat="49.07623" lon="7.13459">
        <ele>226.53</ele>
        <time>2013-03-30T05:21:58Z</time>
      </trkpt>
      <trkpt lat="49.076" lon="7.13465">
        <ele>224.61</ele>
        <time>2013-03-30T05:22:18Z</time>
      </trkpt>
      <trkpt lat="49.07574" lon="7.13486">
        <ele>223.16</ele>
        <time>2013-03-30T05:22:45Z</time>
      </trkpt>
      <trkpt lat="49.07577" lon="7.13507">
        <ele>223.16</ele>
        <time>2013-03-30T05:23:01Z</time>
      </trkpt>
      <trkpt lat="49.07603" lon="7.1352">
        <ele>221.72</ele>
        <time>2013-03-30T05:23:22Z</time>
      </trkpt>
      <trkpt lat="49.07639" lon="7.13519">
        <ele>219.32</ele>
        <time>2013-03-30T05:23:48Z</time>
      </trkpt>
      <trkpt lat="49.07657" lon="7.13527">
        <ele>217.88</ele>
        <time>2013-03-30T05:24:02Z</time>
      </trkpt>
      <trkpt lat="49.07662" lon="7.13565">
        <ele>214.99</ele>
        <time>2013-03-30T05:24:23Z</time>
      </trkpt>
      <trkpt lat="49.07664" lon="7.13607">
        <ele>212.11</ele>
        <time>2013-03-30T05:24:43Z</time>
      </trkpt>
      <trkpt lat="49.07635" lon="7.13607">
        <ele>213.07</ele>
        <time>2013-03-30T05:25:01Z</time>
      </trkpt>
      <trkpt lat="49.07602" lon="7.13589">
        <ele>213.55</ele>
        <time>2013-03-30T05:25:25Z</time>
      </trkpt>
      <trkpt lat="49.07565" lon="7.1357">
        <ele>214.51</ele>
        <time>2013-03-30T05:25:51Z</time>
      </trkpt>
      <trkpt lat="49.07529" lon="7.13549">
        <ele>216.43</ele>
        <time>2013-03-30T05:26:20Z</time>
      </trkpt>
      <trkpt lat="49.07503" lon="7.13544">
        <ele>219.32</ele>
        <time>2013-03-30T05:26:44Z</time>
      </trkpt>
      <trkpt lat="49.07493" lon="7.13549">
        <ele>219.8</ele>
        <time>2013-03-30T05:27:11Z</time>
      </trkpt>
      <trkpt lat="49.07489" lon="7.13551">
        <ele>219.8</ele>
        <time>2013-03-30T05:27:31Z</time>
      </trkpt>
    </trkseg>
  </trk>
  <trk>
    <name><![CDATA[Tracé actuel: 31 MARS 2013 06:16]]></name>
    <trkseg>
      <trkpt lat="49.07494" lon="7.13544">
        <ele>221.24</ele>
        <time>2013-03-31T04:16:38Z</time>
      </trkpt>
      <trkpt lat="49.07526" lon="7.13542">
        <ele>218.84</ele>
        <time>2013-03-31T04:17:06Z</time>
      </trkpt>
      <trkpt lat="49.07546" lon="7.13548">
        <ele>217.4</ele>
        <time>2013-03-31T04:17:23Z</time>
      </trkpt>
      <trkpt lat="49.07565" lon="7.13561">
        <ele>214.99</ele>
        <time>2013-03-31T04:17:50Z</time>
      </trkpt>
      <trkpt lat="49.07585" lon="7.1357">
        <ele>214.51</ele>
        <time>2013-03-31T04:18:17Z</time>
      </trkpt>
      <trkpt lat="49.07607" lon="7.13584">
        <ele>214.51</ele>
        <time>2013-03-31T04:18:39Z</time>
      </trkpt>
      <trkpt lat="49.07617" lon="7.13594">
        <ele>214.03</ele>
        <time>2013-03-31T04:19:04Z</time>
      </trkpt>
      <trkpt lat="49.07637" lon="7.13605">
        <ele>213.55</ele>
        <time>2013-03-31T04:19:31Z</time>
      </trkpt>
      <trkpt lat="49.07657" lon="7.13614">
        <ele>212.59</ele>
        <time>2013-03-31T04:19:49Z</time>
      </trkpt>
      <trkpt lat="49.07661" lon="7.13578">
        <ele>214.51</ele>
        <time>2013-03-31T04:20:11Z</time>
      </trkpt>
      <trkpt lat="49.07659" lon="7.13562">
        <ele>214.99</ele>
        <time>2013-03-31T04:20:35Z</time>
      </trkpt>
      <trkpt lat="49.07659" lon="7.13557">
        <ele>215.47</ele>
        <time>2013-03-31T04:20:55Z</time>
      </trkpt>
      <trkpt lat="49.07659" lon="7.13553">
        <ele>215.95</ele>
        <time>2013-03-31T04:20:57Z</time>
      </trkpt>
      <trkpt lat="49.07659" lon="7.13543">
        <ele>216.43</ele>
        <time>2013-03-31T04:21:02Z</time>
      </trkpt>
      <trkpt lat="49.07639" lon="7.13527">
        <ele>219.32</ele>
        <time>2013-03-31T04:21:24Z</time>
      </trkpt>
      <trkpt lat="49.07622" lon="7.13528">
        <ele>220.76</ele>
        <time>2013-03-31T04:21:42Z</time>
      </trkpt>
      <trkpt lat="49.07594" lon="7.13532">
        <ele>222.2</ele>
        <time>2013-03-31T04:22:03Z</time>
      </trkpt>
      <trkpt lat="49.07576" lon="7.13515">
        <ele>222.68</ele>
        <time>2013-03-31T04:22:20Z</time>
      </trkpt>
      <trkpt lat="49.07575" lon="7.13472">
        <ele>224.12</ele>
        <time>2013-03-31T04:22:42Z</time>
      </trkpt>
      <trkpt lat="49.07596" lon="7.13457">
        <ele>225.09</ele>
        <time>2013-03-31T04:23:06Z</time>
      </trkpt>
      <trkpt lat="49.07616" lon="7.13451">
        <ele>226.53</ele>
        <time>2013-03-31T04:23:28Z</time>
      </trkpt>
      <trkpt lat="49.07634" lon="7.13446">
        <ele>227.49</ele>
        <time>2013-03-31T04:23:50Z</time>
      </trkpt>
      <trkpt lat="49.07644" lon="7.13411">
        <ele>228.45</ele>
        <time>2013-03-31T04:24:14Z</time>
      </trkpt>
      <trkpt lat="49.07644" lon="7.13409">
        <ele>228.93</ele>
        <time>2013-03-31T04:24:15Z</time>
      </trkpt>
      <trkpt lat="49.07644" lon="7.13366">
        <ele>231.81</ele>
        <time>2013-03-31T04:24:40Z</time>
      </trkpt>
      <trkpt lat="49.07641" lon="7.1332">
        <ele>234.22</ele>
        <time>2013-03-31T04:25:05Z</time>
      </trkpt>
      <trkpt lat="49.07642" lon="7.1327">
        <ele>236.14</ele>
        <time>2013-03-31T04:25:32Z</time>
      </trkpt>
      <trkpt lat="49.07646" lon="7.13222">
        <ele>238.54</ele>
        <time>2013-03-31T04:25:59Z</time>
      </trkpt>
      <trkpt lat="49.07667" lon="7.13213">
        <ele>239.02</ele>
        <time>2013-03-31T04:26:18Z</time>
      </trkpt>
      <trkpt lat="49.07698" lon="7.13209">
        <ele>239.99</ele>
        <time>2013-03-31T04:26:42Z</time>
      </trkpt>
      <trkpt lat="49.07732" lon="7.13203">
        <ele>240.47</ele>
        <time>2013-03-31T04:27:12Z</time>
      </trkpt>
      <trkpt lat="49.07746" lon="7.13196">
        <ele>240.47</ele>
        <time>2013-03-31T04:27:37Z</time>
      </trkpt>
      <trkpt lat="49.07774" lon="7.13179">
        <ele>240.95</ele>
        <time>2013-03-31T04:28:00Z</time>
      </trkpt>
      <trkpt lat="49.07806" lon="7.13166">
        <ele>241.43</ele>
        <time>2013-03-31T04:28:25Z</time>
      </trkpt>
      <trkpt lat="49.07846" lon="7.13152">
        <ele>239.99</ele>
        <time>2013-03-31T04:28:57Z</time>
      </trkpt>
      <trkpt lat="49.07876" lon="7.1318">
        <ele>238.06</ele>
        <time>2013-03-31T04:29:27Z</time>
      </trkpt>
      <trkpt lat="49.07879" lon="7.13183">
        <ele>238.06</ele>
        <time>2013-03-31T04:29:41Z</time>
      </trkpt>
      <trkpt lat="49.07895" lon="7.13185">
        <ele>239.02</ele>
        <time>2013-03-31T04:30:02Z</time>
      </trkpt>
      <trkpt lat="49.07905" lon="7.13182">
        <ele>239.02</ele>
        <time>2013-03-31T04:30:10Z</time>
      </trkpt>
      <trkpt lat="49.07939" lon="7.13153">
        <ele>240.95</ele>
        <time>2013-03-31T04:30:41Z</time>
      </trkpt>
      <trkpt lat="49.07974" lon="7.13124">
        <ele>242.87</ele>
        <time>2013-03-31T04:31:15Z</time>
      </trkpt>
      <trkpt lat="49.08007" lon="7.131">
        <ele>244.31</ele>
        <time>2013-03-31T04:31:45Z</time>
      </trkpt>
      <trkpt lat="49.0803" lon="7.13082">
        <ele>244.31</ele>
        <time>2013-03-31T04:32:11Z</time>
      </trkpt>
      <trkpt lat="49.08034" lon="7.13078">
        <ele>244.31</ele>
        <time>2013-03-31T04:32:29Z</time>
      </trkpt>
      <trkpt lat="49.08036" lon="7.13078">
        <ele>243.83</ele>
        <time>2013-03-31T04:32:31Z</time>
      </trkpt>
      <trkpt lat="49.0807" lon="7.13066">
        <ele>243.83</ele>
        <time>2013-03-31T04:32:58Z</time>
      </trkpt>
      <trkpt lat="49.08084" lon="7.13071">
        <ele>241.43</ele>
        <time>2013-03-31T04:33:09Z</time>
      </trkpt>
      <trkpt lat="49.08103" lon="7.13054">
        <ele>241.43</ele>
        <time>2013-03-31T04:33:33Z</time>
      </trkpt>
      <trkpt lat="49.08125" lon="7.13024">
        <ele>240.47</ele>
        <time>2013-03-31T04:33:58Z</time>
      </trkpt>
      <trkpt lat="49.08131" lon="7.13022">
        <ele>240.47</ele>
        <time>2013-03-31T04:34:03Z</time>
      </trkpt>
      <trkpt lat="49.08134" lon="7.13015">
        <ele>240.47</ele>
        <time>2013-03-31T04:34:07Z</time>
      </trkpt>
      <trkpt lat="49.08155" lon="7.12975">
        <ele>241.43</ele>
        <time>2013-03-31T04:34:33Z</time>
      </trkpt>
      <trkpt lat="49.08173" lon="7.12925">
        <ele>241.91</ele>
        <time>2013-03-31T04:35:02Z</time>
      </trkpt>
      <trkpt lat="49.0819" lon="7.12871">
        <ele>243.35</ele>
        <time>2013-03-31T04:35:31Z</time>
      </trkpt>
      <trkpt lat="49.08202" lon="7.12826">
        <ele>244.79</ele>
        <time>2013-03-31T04:35:55Z</time>
      </trkpt>
      <trkpt lat="49.08228" lon="7.12811">
        <ele>243.35</ele>
        <time>2013-03-31T04:36:19Z</time>
      </trkpt>
      <trkpt lat="49.08273" lon="7.12829">
        <ele>241.43</ele>
        <time>2013-03-31T04:36:52Z</time>
      </trkpt>
      <trkpt lat="49.0831" lon="7.12846">
        <ele>240.47</ele>
        <time>2013-03-31T04:37:21Z</time>
      </trkpt>
      <trkpt lat="49.08353" lon="7.12862">
        <ele>239.51</ele>
        <time>2013-03-31T04:37:52Z</time>
      </trkpt>
      <trkpt lat="49.08387" lon="7.12883">
        <ele>238.06</ele>
        <time>2013-03-31T04:38:18Z</time>
      </trkpt>
      <trkpt lat="49.08418" lon="7.12903">
        <ele>236.14</ele>
        <time>2013-03-31T04:38:44Z</time>
      </trkpt>
      <trkpt lat="49.08437" lon="7.12913">
        <ele>235.18</ele>
        <time>2013-03-31T04:39:00Z</time>
      </trkpt>
      <trkpt lat="49.08444" lon="7.12924">
        <ele>235.18</ele>
        <time>2013-03-31T04:39:08Z</time>
      </trkpt>
      <trkpt lat="49.08484" lon="7.12946">
        <ele>231.81</ele>
        <time>2013-03-31T04:39:39Z</time>
      </trkpt>
      <trkpt lat="49.08499" lon="7.12951">
        <ele>230.85</ele>
        <time>2013-03-31T04:39:50Z</time>
      </trkpt>
      <trkpt lat="49.08518" lon="7.12983">
        <ele>228.93</ele>
        <time>2013-03-31T04:40:12Z</time>
      </trkpt>
      <trkpt lat="49.08498" lon="7.13033">
        <ele>227.49</ele>
        <time>2013-03-31T04:40:39Z</time>
      </trkpt>
      <trkpt lat="49.08476" lon="7.13066">
        <ele>225.57</ele>
        <time>2013-03-31T04:41:04Z</time>
      </trkpt>
      <trkpt lat="49.08446" lon="7.13104">
        <ele>223.64</ele>
        <time>2013-03-31T04:41:30Z</time>
      </trkpt>
      <trkpt lat="49.0841" lon="7.13139">
        <ele>221.72</ele>
        <time>2013-03-31T04:41:58Z</time>
      </trkpt>
      <trkpt lat="49.08371" lon="7.13168">
        <ele>220.76</ele>
        <time>2013-03-31T04:42:27Z</time>
      </trkpt>
      <trkpt lat="49.08336" lon="7.13188">
        <ele>220.76</ele>
        <time>2013-03-31T04:42:54Z</time>
      </trkpt>
      <trkpt lat="49.08297" lon="7.13207">
        <ele>220.76</ele>
        <time>2013-03-31T04:43:24Z</time>
      </trkpt>
      <trkpt lat="49.08246" lon="7.13233">
        <ele>219.8</ele>
        <time>2013-03-31T04:43:59Z</time>
      </trkpt>
      <trkpt lat="49.08191" lon="7.13258">
        <ele>219.8</ele>
        <time>2013-03-31T04:44:37Z</time>
      </trkpt>
      <trkpt lat="49.08154" lon="7.13274">
        <ele>221.24</ele>
        <time>2013-03-31T04:45:05Z</time>
      </trkpt>
      <trkpt lat="49.08106" lon="7.13297">
        <ele>221.24</ele>
        <time>2013-03-31T04:45:39Z</time>
      </trkpt>
      <trkpt lat="49.08061" lon="7.13319">
        <ele>219.8</ele>
        <time>2013-03-31T04:46:11Z</time>
      </trkpt>
      <trkpt lat="49.08015" lon="7.13339">
        <ele>220.76</ele>
        <time>2013-03-31T04:46:42Z</time>
      </trkpt>
      <trkpt lat="49.0801" lon="7.13343">
        <ele>221.24</ele>
        <time>2013-03-31T04:46:47Z</time>
      </trkpt>
      <trkpt lat="49.08005" lon="7.13344">
        <ele>221.24</ele>
        <time>2013-03-31T04:46:55Z</time>
      </trkpt>
      <trkpt lat="49.07986" lon="7.13359">
        <ele>218.84</ele>
        <time>2013-03-31T04:47:14Z</time>
      </trkpt>
      <trkpt lat="49.07973" lon="7.13396">
        <ele>214.99</ele>
        <time>2013-03-31T04:47:36Z</time>
      </trkpt>
      <trkpt lat="49.07946" lon="7.13433">
        <ele>212.11</ele>
        <time>2013-03-31T04:48:02Z</time>
      </trkpt>
      <trkpt lat="49.07942" lon="7.13438">
        <ele>212.11</ele>
        <time>2013-03-31T04:48:06Z</time>
      </trkpt>
      <trkpt lat="49.07933" lon="7.13452">
        <ele>211.15</ele>
        <time>2013-03-31T04:48:19Z</time>
      </trkpt>
      <trkpt lat="49.07932" lon="7.13501">
        <ele>208.74</ele>
        <time>2013-03-31T04:48:43Z</time>
      </trkpt>
      <trkpt lat="49.07931" lon="7.13548">
        <ele>208.74</ele>
        <time>2013-03-31T04:49:07Z</time>
      </trkpt>
      <trkpt lat="49.07919" lon="7.1355">
        <ele>208.74</ele>
        <time>2013-03-31T04:49:13Z</time>
      </trkpt>
      <trkpt lat="49.07863" lon="7.13571">
        <ele>209.7</ele>
        <time>2013-03-31T04:49:41Z</time>
      </trkpt>
      <trkpt lat="49.07819" lon="7.13583">
        <ele>210.19</ele>
        <time>2013-03-31T04:50:14Z</time>
      </trkpt>
      <trkpt lat="49.07784" lon="7.13597">
        <ele>210.67</ele>
        <time>2013-03-31T04:50:43Z</time>
      </trkpt>
      <trkpt lat="49.07752" lon="7.13613">
        <ele>210.19</ele>
        <time>2013-03-31T04:51:09Z</time>
      </trkpt>
      <trkpt lat="49.07726" lon="7.13628">
        <ele>210.19</ele>
        <time>2013-03-31T04:51:34Z</time>
      </trkpt>
      <trkpt lat="49.07702" lon="7.13635">
        <ele>210.67</ele>
        <time>2013-03-31T04:51:50Z</time>
      </trkpt>
      <trkpt lat="49.07699" lon="7.13635">
        <ele>210.67</ele>
        <time>2013-03-31T04:51:52Z</time>
      </trkpt>
      <trkpt lat="49.0767" lon="7.13626">
        <ele>211.63</ele>
        <time>2013-03-31T04:52:15Z</time>
      </trkpt>
      <trkpt lat="49.0764" lon="7.13615">
        <ele>213.07</ele>
        <time>2013-03-31T04:52:37Z</time>
      </trkpt>
      <trkpt lat="49.07622" lon="7.13603">
        <ele>213.07</ele>
        <time>2013-03-31T04:52:57Z</time>
      </trkpt>
      <trkpt lat="49.07587" lon="7.13586">
        <ele>213.55</ele>
        <time>2013-03-31T04:53:22Z</time>
      </trkpt>
      <trkpt lat="49.07554" lon="7.13565">
        <ele>214.99</ele>
        <time>2013-03-31T04:53:49Z</time>
      </trkpt>
      <trkpt lat="49.07523" lon="7.13542">
        <ele>216.43</ele>
        <time>2013-03-31T04:54:15Z</time>
      </trkpt>
      <trkpt lat="49.07501" lon="7.13546">
        <ele>219.8</ele>
        <time>2013-03-31T04:54:39Z</time>
      </trkpt>
      <trkpt lat="49.07493" lon="7.13547">
        <ele>217.88</ele>
        <time>2013-03-31T04:55:02Z</time>
      </trkpt>
      <trkpt lat="49.07492" lon="7.13547">
        <ele>220.28</ele>
        <time>2013-03-31T04:55:03Z</time>
      </trkpt>
      <trkpt lat="49.07491" lon="7.13546">
        <ele>218.84</ele>
        <time>2013-03-31T04:55:05Z</time>
      </trkpt>
    </trkseg>
  </trk>
</gpx>